Observation data for Big Lake on 12/10/2018      Previous  Date       Current Mesonet Observations  Soil Data  Daily Summary Page  Observations in Plain Language
KBI1 100600Z 17001KT 00/M01 A304 RMK A01 T00011013  RH  090%=      5-min Rain = 0
KBI1 100601Z 17000KT 00/01 A304 RMK A01 T00000-13  RH  091%=      5-min Rain = 0
KBI1 100602Z 00000KT 00/01 A304 RMK A01 T00000-13  RH  091%=      5-min Rain = 0
KBI1 100603Z 00000KT 00/01 A304 RMK A01 T00-00-13  RH  091%=      5-min Rain = 0
KBI1 100604Z 17000KT M00/M01 A304 RMK A01 T10011014  RH  091%=      5-min Rain = 0
KBI1 100605Z 17000KT M00/M02 A304 RMK A01 T10021015  RH  091%=      5-min Rain = 0
KBI1 100606Z 17000KT M00/M02 A304 RMK A01 T10021016  RH  091%=      5-min Rain = 0
KBI1 100607Z 17001KT M00/M02 A304 RMK A01 T10031017  RH  091%=      5-min Rain = 0
KBI1 100608Z 17001KT M00/M02 A304 RMK A01 T10041017  RH  091%=      5-min Rain = 0
KBI1 100609Z 17000KT M00/M02 A304 RMK A01 T10041016  RH  091%=      5-min Rain = 0
KBI1 100610Z 00000KT M00/M02 A304 RMK A01 T10041016  RH  091%=      5-min Rain = 0
KBI1 100611Z 00000KT M00/M02 A304 RMK A01 T10041016  RH  092%=      5-min Rain = 0
KBI1 100612Z 00000KT M00/M01 A304 RMK A01 T10031014  RH  092%=      5-min Rain = 0
KBI1 100613Z 00000KT M00/M01 A304 RMK A01 T10021013  RH  092%=      5-min Rain = 0
KBI1 100614Z 00000KT M00/M01 A304 RMK A01 T10011011  RH  093%=      5-min Rain = 0
KBI1 100615Z 00000KT 00/01 A304 RMK A01 T00-00-10  RH  093%=      5-min Rain = 0
KBI1 100616Z 00000KT 00/01 A304 RMK A01 T00-00-11  RH  093%=      5-min Rain = 0
KBI1 100617Z 00000KT 00/01 A304 RMK A01 T00000-10  RH  093%=      5-min Rain = 0
KBI1 100618Z 00000KT 00/01 A304 RMK A01 T00-00-11  RH  093%=      5-min Rain = 0
KBI1 100619Z 00000KT 00/01 A304 RMK A01 T00000-10  RH  093%=      5-min Rain = 0
KBI1 100620Z 00000KT 00/01 A304 RMK A01 T00-00-11  RH  093%=      5-min Rain = 0
KBI1 100621Z 00000KT 00/01 A304 RMK A01 T00000-10  RH  093%=      5-min Rain = 0
KBI1 100622Z 00000KT M00/M01 A304 RMK A01 T10011011  RH  093%=      5-min Rain = 0
KBI1 100623Z 00000KT M00/M01 A304 RMK A01 T10011011  RH  093%=      5-min Rain = 0
KBI1 100624Z 00000KT M00/M01 A304 RMK A01 T10011012  RH  093%=      5-min Rain = 0
KBI1 100625Z 00000KT M00/M01 A3039 RMK A01 T10021012  RH  093%=      5-min Rain = 0
KBI1 100626Z 00000KT M00/M01 A3039 RMK A01 T10021012  RH  093%=      5-min Rain = 0
KBI1 100627Z 00000KT M00/M01 A3039 RMK A01 T10021012  RH  093%=      5-min Rain = 0
KBI1 100628Z 00000KT M00/M01 A3039 RMK A01 T10021012  RH  093%=      5-min Rain = 0
KBI1 100629Z 00000KT M00/M01 A3039 RMK A01 T10021012  RH  093%=      5-min Rain = 0
KBI1 100630Z 00000KT M00/M01 A3039 RMK A01 T10021011  RH  093%=      5-min Rain = 0
KBI1 100631Z 00000KT M00/M01 A3039 RMK A01 T10011010  RH  094%=      5-min Rain = 0
KBI1 100632Z 00000KT M00/M01 A3039 RMK A01 T10011010  RH  094%=      5-min Rain = 0
KBI1 100633Z 00000KT M00/M01 A3039 RMK A01 T10011010  RH  093%=      5-min Rain = 0
KBI1 100634Z 00000KT M00/M01 A3039 RMK A01 T10011011  RH  093%=      5-min Rain = 0
KBI1 100635Z 00000KT M00/M01 A3039 RMK A01 T10021011  RH  093%=      5-min Rain = 0
KBI1 100636Z 10000KT M00/M01 A3039 RMK A01 T10011010  RH  094%=      5-min Rain = 0
KBI1 100637Z 10001KT 00/01 A3039 RMK A01 T00-000-9  RH  094%=      5-min Rain = 0
KBI1 100638Z 10001KT 00/M01 A3039 RMK A01 T00021007  RH  094%=      5-min Rain = 0
KBI1 100639Z 10002KT 00/M01 A3039 RMK A01 T00031005  RH  094%=      5-min Rain = 0
KBI1 100640Z 10002KT 00/M01 A3039 RMK A01 T00031005  RH  094%=      5-min Rain = 0
KBI1 100641Z 10002KT 00/M01 A3039 RMK A01 T00031005  RH  094%=      5-min Rain = 0
KBI1 100642Z 10002KT 00/M01 A3039 RMK A01 T00031006  RH  094%=      5-min Rain = 0
KBI1 100643Z 10001KT 00/M01 A3039 RMK A01 T00031006  RH  094%=      5-min Rain = 0
KBI1 100644Z 10001KT 00/M01 A3039 RMK A01 T00031007  RH  093%=      5-min Rain = 0
KBI1 100645Z 10001KT 00/M01 A3039 RMK A01 T00031007  RH  093%=      5-min Rain = 0
KBI1 100646Z 10001KT 00/M01 A3039 RMK A01 T00031007  RH  093%=      5-min Rain = 0
KBI1 100647Z 10001KT 00/M01 A3039 RMK A01 T00031007  RH  093%=      5-min Rain = 0
KBI1 100648Z 10001KT 00/M01 A3039 RMK A01 T00031008  RH  093%=      5-min Rain = 0
KBI1 100649Z 10001KT 00/M01 A3039 RMK A01 T00021008  RH  093%=      5-min Rain = 0
KBI1 100650Z 10000KT 00/M01 A3039 RMK A01 T00011010  RH  092%=      5-min Rain = 0
KBI1 100651Z 00000KT 00/M01 A3039 RMK A01 T00011010  RH  092%=      5-min Rain = 0
KBI1 100652Z 00000KT 00/M01 A3039 RMK A01 T00011009  RH  093%=      5-min Rain = 0
KBI1 100653Z 21001KT 00/M01 A3039 RMK A01 T00011009  RH  093%=      5-min Rain = 0
KBI1 100654Z 22004KT 00/M01 A3039 RMK A01 T00011009  RH  093%=      5-min Rain = 0
KBI1 100655Z 22003KT M00/M01 A3039 RMK A01 T10011013  RH  092%=      5-min Rain = 0
KBI1 100656Z 21003KT M00/M01 A3039 RMK A01 T10021014  RH  092%=      5-min Rain = 0
KBI1 100657Z 22003KT M00/M02 A3039 RMK A01 T10031016  RH  091%=      5-min Rain = 0
KBI1 100658Z 21002KT M00/M02 A3039 RMK A01 T10041017  RH  091%=      5-min Rain = 0
KBI1 100659Z 21002KT M01/M02 A3039 RMK A01 T10051017  RH  091%=      5-min Rain = 0
KBI1 100700Z 22002KT M01/M02 A3039 RMK A01 T10051017  RH  091%=      5-min Rain = 0
KBI1 100701Z 22002KT M01/M02 A3039 RMK A01 T10061018  RH  091%=      5-min Rain = 0
KBI1 100702Z 22002KT M01/M02 A3039 RMK A01 T10061018  RH  092%=      5-min Rain = 0
KBI1 100703Z 23002KT M01/M02 A3039 RMK A01 T10061018  RH  092%=      5-min Rain = 0
KBI1 100704Z 23002KT M01/M02 A3039 RMK A01 T10061018  RH  092%=      5-min Rain = 0
KBI1 100705Z 23002KT M01/M02 A3039 RMK A01 T10061018  RH  092%=      5-min Rain = 0
KBI1 100706Z 23001KT M01/M02 A3039 RMK A01 T10061018  RH  092%=      5-min Rain = 0
KBI1 100707Z 23001KT M01/M02 A3039 RMK A01 T10061018  RH  091%=      5-min Rain = 0
KBI1 100708Z 23001KT M01/M02 A3039 RMK A01 T10061018  RH  091%=      5-min Rain = 0
KBI1 100709Z 24002KT M01/M02 A3039 RMK A01 T10061018  RH  091%=      5-min Rain = 0
KBI1 100710Z 24002KT M01/M02 A3039 RMK A01 T10061019  RH  091%=      5-min Rain = 0
KBI1 100711Z 24003KT M01/M02 A3039 RMK A01 T10061019  RH  091%=      5-min Rain = 0
KBI1 100712Z 24003KT M01/M02 A3039 RMK A01 T10071019  RH  091%=      5-min Rain = 0
KBI1 100713Z 24002KT M01/M02 A3039 RMK A01 T10071019  RH  091%=      5-min Rain = 0
KBI1 100714Z 24002KT M01/M02 A3039 RMK A01 T10071019  RH  092%=      5-min Rain = 0
KBI1 100715Z 24002KT M01/M02 A3039 RMK A01 T10071019  RH  092%=      5-min Rain = 0
KBI1 100716Z 24002KT M01/M02 A3039 RMK A01 T10071019  RH  092%=      5-min Rain = 0
KBI1 100717Z 25003KT M01/M02 A3039 RMK A01 T10071019  RH  092%=      5-min Rain = 0
KBI1 100718Z 25003KT M01/M02 A3038 RMK A01 T10071019  RH  092%=      5-min Rain = 0
KBI1 100719Z 25003KT M01/M02 A3038 RMK A01 T10081019  RH  092%=      5-min Rain = 0
KBI1 100720Z 25003KT M01/M02 A3038 RMK A01 T10081019  RH  092%=      5-min Rain = 0
KBI1 100721Z 25003KT M01/M02 A3038 RMK A01 T10081019  RH  092%=      5-min Rain = 0
KBI1 100722Z 25003KT M01/M02 A3038 RMK A01 T10081018  RH  092%=      5-min Rain = 0
KBI1 100723Z 25003KT M01/M02 A3038 RMK A01 T10071018  RH  092%=      5-min Rain = 0
KBI1 100724Z 25003KT M01/M02 A3038 RMK A01 T10081019  RH  092%=      5-min Rain = 0
KBI1 100725Z 25003KT M01/M02 A3038 RMK A01 T10081019  RH  092%=      5-min Rain = 0
KBI1 100726Z 25003KT M01/M02 A3038 RMK A01 T10081019  RH  092%=      5-min Rain = 0
KBI1 100727Z 25003KT M01/M02 A3038 RMK A01 T10081019  RH  092%=      5-min Rain = 0
KBI1 100728Z 25003KT M01/M02 A3038 RMK A01 T10081019  RH  092%=      5-min Rain = 0
KBI1 100729Z 25003KT M01/M02 A3038 RMK A01 T10081019  RH  092%=      5-min Rain = 0
KBI1 100730Z 26003KT M01/M02 A3038 RMK A01 T10081020  RH  092%=      5-min Rain = 0
KBI1 100731Z 26003KT M01/M02 A3038 RMK A01 T10091021  RH  092%=      5-min Rain = 0
KBI1 100732Z 25002KT M01/M02 A3038 RMK A01 T10091021  RH  092%=      5-min Rain = 0
KBI1 100733Z 25002KT M01/M02 A3038 RMK A01 T10101021  RH  092%=      5-min Rain = 0
KBI1 100734Z 26003KT M01/M02 A3038 RMK A01 T10101021  RH  092%=      5-min Rain = 0
KBI1 100735Z 26003KT M01/M02 A3038 RMK A01 T10091020  RH  092%=      5-min Rain = 0
KBI1 100736Z 26003KT M01/M02 A3038 RMK A01 T10091020  RH  092%=      5-min Rain = 0
KBI1 100737Z 26003KT M01/M02 A3038 RMK A01 T10091020  RH  092%=      5-min Rain = 0
KBI1 100738Z 26003KT M01/M02 A3038 RMK A01 T10091019  RH  093%=      5-min Rain = 0
KBI1 100739Z 26003KT M01/M02 A3038 RMK A01 T10081019  RH  093%=      5-min Rain = 0
KBI1 100740Z 26003KT M01/M02 A3038 RMK A01 T10071018  RH  093%=      5-min Rain = 0
KBI1 100741Z 26003KT M01/M02 A3038 RMK A01 T10071017  RH  093%=      5-min Rain = 0
KBI1 100742Z 26003KT M01/M02 A3038 RMK A01 T10071017  RH  093%=      5-min Rain = 0
KBI1 100743Z 25003KT M01/M02 A3038 RMK A01 T10061017  RH  092%=      5-min Rain = 0
KBI1 100744Z 25003KT M01/M02 A3038 RMK A01 T10071019  RH  092%=      5-min Rain = 0
KBI1 100745Z 25003KT M01/M02 A3038 RMK A01 T10071018  RH  092%=      5-min Rain = 0
KBI1 100746Z 25003KT M01/M02 A3038 RMK A01 T10061017  RH  092%=      5-min Rain = 0
KBI1 100747Z 26002KT M01/M02 A3038 RMK A01 T10061017  RH  092%=      5-min Rain = 0
KBI1 100748Z 26002KT M01/M02 A3038 RMK A01 T10061018  RH  092%=      5-min Rain = 0
KBI1 100749Z 26002KT M01/M02 A3038 RMK A01 T10051017  RH  092%=      5-min Rain = 0
KBI1 100750Z 26002KT M01/M02 A3038 RMK A01 T10051017  RH  092%=      5-min Rain = 0
KBI1 100751Z 26002KT M01/M02 A3038 RMK A01 T10051017  RH  092%=      5-min Rain = 0
KBI1 100752Z 25002KT M01/M02 A3038 RMK A01 T10061018  RH  091%=      5-min Rain = 0
KBI1 100753Z 25002KT M01/M02 A3038 RMK A01 T10071020  RH  091%=      5-min Rain = 0
KBI1 100754Z 26003KT M01/M02 A3038 RMK A01 T10071020  RH  091%=      5-min Rain = 0
KBI1 100755Z 26003KT M01/M02 A3038 RMK A01 T10071020  RH  091%=      5-min Rain = 0
KBI1 100756Z 26003KT M01/M02 A3038 RMK A01 T10071020  RH  091%=      5-min Rain = 0
KBI1 100757Z 26003KT M01/M02 A3038 RMK A01 T10071019  RH  091%=      5-min Rain = 0
KBI1 100758Z 26003KT M01/M02 A3038 RMK A01 T10071019  RH  091%=      5-min Rain = 0
KBI1 100759Z 26003KT M01/M02 A3038 RMK A01 T10071020  RH  091%=      5-min Rain = 0
KBI1 100800Z 26003KT M01/M02 A3038 RMK A01 T10081020  RH  091%=      5-min Rain = 0
KBI1 100801Z 26003KT M01/M02 A3038 RMK A01 T10081020  RH  091%=      5-min Rain = 0
KBI1 100802Z 26003KT M01/M02 A3038 RMK A01 T10081021  RH  091%=      5-min Rain = 0
KBI1 100803Z 26003KT M01/M02 A3038 RMK A01 T10091022  RH  091%=      5-min Rain = 0
KBI1 100804Z 26003KT M01/M02 A3038 RMK A01 T10081020  RH  092%=      5-min Rain = 0
KBI1 100805Z 25004KT M01/M02 A3038 RMK A01 T10071019  RH  092%=      5-min Rain = 0
KBI1 100806Z 25004KT M01/M02 A3038 RMK A01 T10071019  RH  092%=      5-min Rain = 0
KBI1 100807Z 25004KT M01/M02 A3038 RMK A01 T10071019  RH  091%=      5-min Rain = 0
KBI1 100808Z 25004KT M01/M02 A3038 RMK A01 T10071020  RH  091%=      5-min Rain = 0
KBI1 100809Z 25004KT M01/M02 A3038 RMK A01 T10071020  RH  091%=      5-min Rain = 0
KBI1 100810Z 24005KT M01/M02 A3038 RMK A01 T10071020  RH  091%=      5-min Rain = 0
KBI1 100811Z 25005KT M01/M02 A3038 RMK A01 T10081021  RH  091%=      5-min Rain = 0
KBI1 100812Z 25005KT M01/M02 A3038 RMK A01 T10091023  RH  090%=      5-min Rain = 0
KBI1 100813Z 25005KT M01/M03 A3038 RMK A01 T10101025  RH  090%=      5-min Rain = 0
KBI1 100814Z 25006KT M01/M03 A3038 RMK A01 T10111025  RH  090%=      5-min Rain = 0
KBI1 100815Z 25006KT M01/M02 A3038 RMK A01 T10101023  RH  091%=      5-min Rain = 0
KBI1 100816Z 24006KT M01/M02 A3038 RMK A01 T10101022  RH  091%=      5-min Rain = 0
KBI1 100817Z 24006KT M01/M02 A3038 RMK A01 T10091022  RH  091%=      5-min Rain = 0
KBI1 100818Z 24006KT M01/M02 A3038 RMK A01 T10091022  RH  091%=      5-min Rain = 0
KBI1 100819Z 24006KT M01/M02 A3038 RMK A01 T10091022  RH  091%=      5-min Rain = 0
KBI1 100820Z 24006KT M01/M02 A3038 RMK A01 T10101022  RH  091%=      5-min Rain = 0
KBI1 100821Z 24005KT M01/M02 A3038 RMK A01 T10101023  RH  091%=      5-min Rain = 0
KBI1 100822Z 23004KT M01/M02 A3038 RMK A01 T10101023  RH  091%=      5-min Rain = 0
KBI1 100823Z 23003KT M01/M02 A3038 RMK A01 T10101023  RH  091%=      5-min Rain = 0
KBI1 100824Z 23003KT M01/M02 A3038 RMK A01 T10101023  RH  091%=      5-min Rain = 0
KBI1 100825Z 23003KT M01/M02 A3038 RMK A01 T10101022  RH  091%=      5-min Rain = 0
KBI1 100826Z 23004KT M01/M02 A3038 RMK A01 T10101022  RH  091%=      5-min Rain = 0
KBI1 100827Z 23004KT M01/M02 A3038 RMK A01 T10111024  RH  091%=      5-min Rain = 0
KBI1 100828Z 23003KT M01/M02 A3038 RMK A01 T10121024  RH  091%=      5-min Rain = 0
KBI1 100829Z 23003KT M01/M03 A3038 RMK A01 T10121025  RH  091%=      5-min Rain = 0
KBI1 100830Z 22003KT M01/M03 A3037 RMK A01 T10131026  RH  091%=      5-min Rain = 0
KBI1 100831Z 22003KT M01/M03 A3037 RMK A01 T10131026  RH  091%=      5-min Rain = 0
KBI1 100832Z 22002KT M01/M03 A3037 RMK A01 T10131026  RH  091%=      5-min Rain = 0
KBI1 100833Z 22002KT M01/M03 A3037 RMK A01 T10131025  RH  092%=      5-min Rain = 0
KBI1 100834Z 23002KT M01/M02 A3037 RMK A01 T10131024  RH  092%=      5-min Rain = 0
KBI1 100835Z 23003KT M01/M02 A3037 RMK A01 T10121023  RH  092%=      5-min Rain = 0
KBI1 100836Z 23002KT M01/M02 A3037 RMK A01 T10121023  RH  092%=      5-min Rain = 0
KBI1 100837Z 24002KT M01/M02 A3037 RMK A01 T10121023  RH  092%=      5-min Rain = 0
KBI1 100838Z 24002KT M01/M02 A3037 RMK A01 T10111022  RH  092%=      5-min Rain = 0
KBI1 100839Z 24002KT M01/M02 A3037 RMK A01 T10111022  RH  092%=      5-min Rain = 0
KBI1 100840Z 25001KT M01/M02 A3037 RMK A01 T10111023  RH  092%=      5-min Rain = 0
KBI1 100841Z 25001KT M01/M02 A3037 RMK A01 T10121023  RH  092%=      5-min Rain = 0
KBI1 100842Z 25001KT M01/M02 A3037 RMK A01 T10121024  RH  092%=      5-min Rain = 0
KBI1 100843Z 24001KT M01/M02 A3037 RMK A01 T10131024  RH  092%=      5-min Rain = 0
KBI1 100844Z 24001KT M01/M02 A3037 RMK A01 T10131024  RH  092%=      5-min Rain = 0
KBI1 100845Z 23002KT M01/M03 A3037 RMK A01 T10141025  RH  092%=      5-min Rain = 0
KBI1 100846Z 23001KT M01/M03 A3037 RMK A01 T10131025  RH  092%=      5-min Rain = 0
KBI1 100847Z 23001KT M01/M03 A3037 RMK A01 T10141025  RH  092%=      5-min Rain = 0
KBI1 100848Z 23001KT M01/M03 A3037 RMK A01 T10141025  RH  092%=      5-min Rain = 0
KBI1 100849Z 23002KT M01/M03 A3037 RMK A01 T10141025  RH  092%=      5-min Rain = 0
KBI1 100850Z 22002KT M01/M03 A3037 RMK A01 T10141025  RH  092%=      5-min Rain = 0
KBI1 100851Z 22002KT M01/M03 A3037 RMK A01 T10141025  RH  093%=      5-min Rain = 0
KBI1 100852Z 23002KT M01/M02 A3037 RMK A01 T10141024  RH  093%=      5-min Rain = 0
KBI1 100853Z 24002KT M01/M02 A3037 RMK A01 T10141024  RH  093%=      5-min Rain = 0
KBI1 100854Z 24001KT M01/M02 A3037 RMK A01 T10141024  RH  093%=      5-min Rain = 0
KBI1 100855Z 24001KT M01/M02 A3037 RMK A01 T10141024  RH  093%=      5-min Rain = 0
KBI1 100856Z 23002KT M01/M02 A3037 RMK A01 T10141024  RH  093%=      5-min Rain = 0
KBI1 100857Z 24002KT M01/M02 A3037 RMK A01 T10131022  RH  093%=      5-min Rain = 0
KBI1 100858Z 25003KT M01/M02 A3037 RMK A01 T10121022  RH  093%=      5-min Rain = 0
KBI1 100859Z 25003KT M01/M02 A3037 RMK A01 T10121022  RH  093%=      5-min Rain = 0
KBI1 100900Z 25002KT M01/M02 A3037 RMK A01 T10131023  RH  093%=      5-min Rain = 0
KBI1 100901Z 26002KT M01/M02 A3037 RMK A01 T10141024  RH  093%=      5-min Rain = 0
KBI1 100902Z 26002KT M01/M02 A3037 RMK A01 T10141023  RH  093%=      5-min Rain = 0
KBI1 100903Z 26002KT M01/M02 A3037 RMK A01 T10131023  RH  093%=      5-min Rain = 0
KBI1 100904Z 26002KT M01/M02 A3037 RMK A01 T10131022  RH  093%=      5-min Rain = 0
KBI1 100905Z 26002KT M01/M02 A3037 RMK A01 T10131022  RH  093%=      5-min Rain = 0
KBI1 100906Z 26001KT M01/M02 A3037 RMK A01 T10131022  RH  093%=      5-min Rain = 0
KBI1 100907Z 26001KT M01/M02 A3037 RMK A01 T10131023  RH  093%=      5-min Rain = 0
KBI1 100908Z 26001KT M01/M02 A3037 RMK A01 T10131023  RH  093%=      5-min Rain = 0
KBI1 100909Z 26001KT M01/M02 A3037 RMK A01 T10141024  RH  093%=      5-min Rain = 0
KBI1 100910Z 26001KT M01/M02 A3037 RMK A01 T10141024  RH  093%=      5-min Rain = 0
KBI1 100911Z 26001KT M02/M03 A3037 RMK A01 T10151025  RH  093%=      5-min Rain = 0
KBI1 100912Z 26001KT M02/M03 A3037 RMK A01 T10151026  RH  093%=      5-min Rain = 0
KBI1 100913Z 26001KT M02/M03 A3037 RMK A01 T10161026  RH  093%=      5-min Rain = 0
KBI1 100914Z 25002KT M02/M03 A3037 RMK A01 T10161026  RH  093%=      5-min Rain = 0
KBI1 100915Z 25002KT M02/M03 A3037 RMK A01 T10161026  RH  093%=      5-min Rain = 0
KBI1 100916Z 25001KT M02/M03 A3037 RMK A01 T10161026  RH  093%=      5-min Rain = 0
KBI1 100917Z 25001KT M02/M03 A3037 RMK A01 T10161026  RH  093%=      5-min Rain = 0
KBI1 100918Z 25001KT M02/M03 A3037 RMK A01 T10161026  RH  093%=      5-min Rain = 0
KBI1 100919Z 25001KT M02/M03 A3037 RMK A01 T10161026  RH  093%=      5-min Rain = 0
KBI1 100920Z 25001KT M02/M03 A3037 RMK A01 T10161026  RH  093%=      5-min Rain = 0
KBI1 100921Z 25001KT M02/M03 A3037 RMK A01 T10161025  RH  094%=      5-min Rain = 0
KBI1 100922Z 24001KT M02/M02 A3037 RMK A01 T10151024  RH  094%=      5-min Rain = 0
KBI1 100923Z 24002KT M02/M02 A3037 RMK A01 T10151024  RH  094%=      5-min Rain = 0
KBI1 100924Z 24002KT M02/M02 A3037 RMK A01 T10151024  RH  094%=      5-min Rain = 0
KBI1 100925Z 24002KT M01/M02 A3037 RMK A01 T10141023  RH  094%=      5-min Rain = 0
KBI1 100926Z 25002KT M01/M02 A3037 RMK A01 T10141023  RH  094%=      5-min Rain = 0
KBI1 100927Z 24002KT M01/M02 A3037 RMK A01 T10131022  RH  094%=      5-min Rain = 0
KBI1 100928Z 24002KT M01/M02 A3037 RMK A01 T10131022  RH  094%=      5-min Rain = 0
KBI1 100929Z 24002KT M01/M02 A3037 RMK A01 T10131022  RH  094%=      5-min Rain = 0
KBI1 100930Z 24003KT M01/M02 A3037 RMK A01 T10131022  RH  093%=      5-min Rain = 0
KBI1 100931Z 24002KT M01/M02 A3037 RMK A01 T10121022  RH  093%=      5-min Rain = 0
KBI1 100932Z 24002KT M01/M02 A3037 RMK A01 T10121022  RH  093%=      5-min Rain = 0
KBI1 100933Z 24003KT M01/M02 A3037 RMK A01 T10131023  RH  093%=      5-min Rain = 0
KBI1 100934Z 24003KT M01/M02 A3037 RMK A01 T10131024  RH  092%=      5-min Rain = 0
KBI1 100935Z 25003KT M01/M03 A3037 RMK A01 T10141025  RH  092%=      5-min Rain = 0
KBI1 100936Z 25002KT M01/M03 A3037 RMK A01 T10141025  RH  092%=      5-min Rain = 0
KBI1 100937Z 26003KT M01/M03 A3037 RMK A01 T10141025  RH  092%=      5-min Rain = 0
KBI1 100938Z 26002KT M01/M03 A3037 RMK A01 T10141025  RH  092%=      5-min Rain = 0
KBI1 100939Z 26002KT M01/M02 A3037 RMK A01 T10131024  RH  092%=      5-min Rain = 0
KBI1 100940Z 26002KT M01/M02 A3037 RMK A01 T10131024  RH  092%=      5-min Rain = 0
KBI1 100941Z 26002KT M01/M02 A3037 RMK A01 T10131024  RH  092%=      5-min Rain = 0
KBI1 100942Z 26002KT M01/M02 A3037 RMK A01 T10131024  RH  092%=      5-min Rain = 0
KBI1 100943Z 25002KT M01/M02 A3037 RMK A01 T10131024  RH  092%=      5-min Rain = 0
KBI1 100944Z 25002KT M01/M03 A3037 RMK A01 T10131025  RH  092%=      5-min Rain = 0
KBI1 100945Z 25001KT M01/M03 A3037 RMK A01 T10131025  RH  091%=      5-min Rain = 0
KBI1 100946Z 24002KT M01/M03 A3037 RMK A01 T10131026  RH  091%=      5-min Rain = 0
KBI1 100947Z 25001KT M01/M03 A3037 RMK A01 T10131026  RH  091%=      5-min Rain = 0
KBI1 100948Z 25001KT M01/M03 A3037 RMK A01 T10131026  RH  091%=      5-min Rain = 0
KBI1 100949Z 25001KT M01/M03 A3037 RMK A01 T10141027  RH  091%=      5-min Rain = 0
KBI1 100950Z 25001KT M01/M03 A3037 RMK A01 T10141027  RH  091%=      5-min Rain = 0
KBI1 100951Z 25001KT M01/M03 A3037 RMK A01 T10141028  RH  091%=      5-min Rain = 0
KBI1 100952Z 25002KT M02/M03 A3037 RMK A01 T10151028  RH  091%=      5-min Rain = 0
KBI1 100953Z 24001KT M02/M03 A3037 RMK A01 T10151029  RH  091%=      5-min Rain = 0
KBI1 100954Z 25002KT M02/M03 A3037 RMK A01 T10161029  RH  091%=      5-min Rain = 0
KBI1 100955Z 24001KT M02/M03 A3037 RMK A01 T10171030  RH  091%=      5-min Rain = 0
KBI1 100956Z 25001KT M02/M03 A3037 RMK A01 T10171031  RH  091%=      5-min Rain = 0
KBI1 100957Z 25001KT M02/M03 A3037 RMK A01 T10181031  RH  091%=      5-min Rain = 0
KBI1 100958Z 25001KT M02/M03 A3037 RMK A01 T10181032  RH  091%=      5-min Rain = 0
KBI1 100959Z 25001KT M02/M03 A3037 RMK A01 T10191032  RH  091%=      5-min Rain = 0
KBI1 101000Z 25001KT M02/M03 A3037 RMK A01 T10191031  RH  091%=      5-min Rain = 0
KBI1 101001Z 26002KT M02/M03 A3037 RMK A01 T10181030  RH  091%=      5-min Rain = 0
KBI1 101002Z 26002KT M02/M03 A3037 RMK A01 T10171029  RH  092%=      5-min Rain = 0
KBI1 101003Z 26002KT M02/M03 A3037 RMK A01 T10171029  RH  092%=      5-min Rain = 0
KBI1 101004Z 26002KT M02/M03 A3037 RMK A01 T10171029  RH  092%=      5-min Rain = 0
KBI1 101005Z 26002KT M02/M03 A3037 RMK A01 T10171029  RH  092%=      5-min Rain = 0
KBI1 101006Z 26002KT M02/M03 A3037 RMK A01 T10161028  RH  092%=      5-min Rain = 0
KBI1 101007Z 26002KT M02/M03 A3037 RMK A01 T10161028  RH  092%=      5-min Rain = 0
KBI1 101008Z 26002KT M02/M03 A3037 RMK A01 T10171029  RH  092%=      5-min Rain = 0
KBI1 101009Z 26002KT M02/M03 A3037 RMK A01 T10171029  RH  091%=      5-min Rain = 0
KBI1 101010Z 26002KT M02/M03 A3037 RMK A01 T10171029  RH  091%=      5-min Rain = 0
KBI1 101011Z 26002KT M02/M03 A3037 RMK A01 T10171030  RH  091%=      5-min Rain = 0
KBI1 101012Z 26002KT M02/M03 A3037 RMK A01 T10181031  RH  091%=      5-min Rain = 0
KBI1 101013Z 26002KT M02/M03 A3037 RMK A01 T10181031  RH  091%=      5-min Rain = 0
KBI1 101014Z 26002KT M02/M03 A3037 RMK A01 T10181031  RH  091%=      5-min Rain = 0
KBI1 101015Z 25002KT M02/M03 A3037 RMK A01 T10181031  RH  091%=      5-min Rain = 0
KBI1 101016Z 25002KT M02/M03 A3037 RMK A01 T10181031  RH  091%=      5-min Rain = 0
KBI1 101017Z 25003KT M02/M03 A3037 RMK A01 T10181031  RH  091%=      5-min Rain = 0
KBI1 101018Z 25002KT M02/M03 A3037 RMK A01 T10191031  RH  091%=      5-min Rain = 0
KBI1 101019Z 26002KT M02/M03 A3037 RMK A01 T10181030  RH  092%=      5-min Rain = 0
KBI1 101020Z 25002KT M02/M03 A3037 RMK A01 T10191031  RH  092%=      5-min Rain = 0
KBI1 101021Z 25002KT M02/M03 A3037 RMK A01 T10191031  RH  092%=      5-min Rain = 0
KBI1 101022Z 25002KT M02/M03 A3037 RMK A01 T10191031  RH  092%=      5-min Rain = 0
KBI1 101023Z 25002KT M02/M03 A3037 RMK A01 T10191031  RH  092%=      5-min Rain = 0
KBI1 101024Z 25003KT M02/M03 A3037 RMK A01 T10191031  RH  092%=      5-min Rain = 0
KBI1 101025Z 25003KT M02/M03 A3037 RMK A01 T10191030  RH  092%=      5-min Rain = 0
KBI1 101026Z 25003KT M02/M03 A3037 RMK A01 T10181029  RH  092%=      5-min Rain = 0
KBI1 101027Z 25003KT M02/M03 A3037 RMK A01 T10171028  RH  092%=      5-min Rain = 0
KBI1 101028Z 25003KT M02/M03 A3037 RMK A01 T10171028  RH  092%=      5-min Rain = 0
KBI1 101029Z 25004KT M02/M03 A3037 RMK A01 T10171028  RH  092%=      5-min Rain = 0
KBI1 101030Z 25004KT M02/M03 A3037 RMK A01 T10171028  RH  092%=      5-min Rain = 0
KBI1 101031Z 26003KT M02/M03 A3037 RMK A01 T10161028  RH  092%=      5-min Rain = 0
KBI1 101032Z 26004KT M02/M03 A3037 RMK A01 T10171029  RH  092%=      5-min Rain = 0
KBI1 101033Z 25004KT M02/M03 A3037 RMK A01 T10171030  RH  091%=      5-min Rain = 0
KBI1 101034Z 26004KT M02/M03 A3036 RMK A01 T10181030  RH  091%=      5-min Rain = 0
KBI1 101035Z 25004KT M02/M03 A3036 RMK A01 T10181031  RH  091%=      5-min Rain = 0
KBI1 101036Z 25005KT M02/M03 A3036 RMK A01 T10181031  RH  091%=      5-min Rain = 0
KBI1 101037Z 25005KT M02/M03 A3036 RMK A01 T10161029  RH  091%=      5-min Rain = 0
KBI1 101038Z 25005KT M02/M03 A3036 RMK A01 T10151028  RH  091%=      5-min Rain = 0
KBI1 101039Z 25006KT M01/M03 A3036 RMK A01 T10141028  RH  091%=      5-min Rain = 0
KBI1 101040Z 25005KT M01/M03 A3036 RMK A01 T10131027  RH  090%=      5-min Rain = 0
KBI1 101041Z 25006KT M01/M03 A3036 RMK A01 T10121026  RH  090%=      5-min Rain = 0
KBI1 101042Z 25006KT M01/M03 A3036 RMK A01 T10111025  RH  090%=      5-min Rain = 0
KBI1 101043Z 25005KT M01/M02 A3036 RMK A01 T10101024  RH  090%=      5-min Rain = 0
KBI1 101044Z 25005KT M01/M03 A3036 RMK A01 T10091025  RH  089%=      5-min Rain = 0
KBI1 101045Z 25004KT M01/M03 A3036 RMK A01 T10101027  RH  088%=      5-min Rain = 0
KBI1 101046Z 25004KT M01/M03 A3036 RMK A01 T10111030  RH  087%=      5-min Rain = 0
KBI1 101047Z 25004KT M01/M03 A3036 RMK A01 T10121030  RH  087%=      5-min Rain = 0
KBI1 101048Z 25004KT M01/M03 A3036 RMK A01 T10121030  RH  087%=      5-min Rain = 0
KBI1 101049Z 25004KT M01/M03 A3036 RMK A01 T10131031  RH  087%=      5-min Rain = 0
KBI1 101050Z 25004KT M01/M03 A3036 RMK A01 T10131031  RH  087%=      5-min Rain = 0
KBI1 101051Z 25004KT M01/M03 A3036 RMK A01 T10141032  RH  087%=      5-min Rain = 0
KBI1 101052Z 25004KT M02/M03 A3036 RMK A01 T10151033  RH  087%=      5-min Rain = 0
KBI1 101053Z 25004KT M02/M03 A3036 RMK A01 T10151034  RH  087%=      5-min Rain = 0
KBI1 101054Z 25003KT M02/M03 A3036 RMK A01 T10161034  RH  087%=      5-min Rain = 0
KBI1 101055Z 26002KT M02/M03 A3036 RMK A01 T10161034  RH  088%=      5-min Rain = 0
KBI1 101056Z 25003KT M02/M03 A3036 RMK A01 T10171034  RH  088%=      5-min Rain = 0
KBI1 101057Z 25002KT M02/M03 A3036 RMK A01 T10171034  RH  088%=      5-min Rain = 0
KBI1 101058Z 25002KT M02/M04 A3036 RMK A01 T10171035  RH  088%=      5-min Rain = 0
KBI1 101059Z 26002KT M02/M04 A3036 RMK A01 T10171035  RH  088%=      5-min Rain = 0
KBI1 101100Z 26003KT M02/M04 A3036 RMK A01 T10181035  RH  088%=      5-min Rain = 0
KBI1 101101Z 26002KT M02/M04 A3036 RMK A01 T10181035  RH  088%=      5-min Rain = 0
KBI1 101102Z 25002KT M02/M04 A3036 RMK A01 T10181035  RH  089%=      5-min Rain = 0
KBI1 101103Z 25002KT M02/M03 A3036 RMK A01 T10181034  RH  089%=      5-min Rain = 0
KBI1 101104Z 26003KT M02/M04 A3036 RMK A01 T10191035  RH  089%=      5-min Rain = 0
KBI1 101105Z 26002KT M02/M03 A3036 RMK A01 T10191034  RH  089%=      5-min Rain = 0
KBI1 101106Z 26002KT M02/M03 A3036 RMK A01 T10191034  RH  089%=      5-min Rain = 0
KBI1 101107Z 26002KT M02/M04 A3036 RMK A01 T10191035  RH  089%=      5-min Rain = 0
KBI1 101108Z 26002KT M02/M04 A3036 RMK A01 T10201035  RH  090%=      5-min Rain = 0
KBI1 101109Z 26003KT M02/M03 A3036 RMK A01 T10191034  RH  090%=      5-min Rain = 0
KBI1 101110Z 27003KT M02/M03 A3036 RMK A01 T10181032  RH  090%=      5-min Rain = 0
KBI1 101111Z 27003KT M02/M03 A3036 RMK A01 T10181031  RH  091%=      5-min Rain = 0
KBI1 101112Z 26003KT M02/M03 A3036 RMK A01 T10171030  RH  091%=      5-min Rain = 0
KBI1 101113Z 27003KT M02/M03 A3036 RMK A01 T10171030  RH  091%=      5-min Rain = 0
KBI1 101114Z 27003KT M02/M03 A3036 RMK A01 T10171030  RH  091%=      5-min Rain = 0
KBI1 101115Z 27003KT M02/M03 A3036 RMK A01 T10171030  RH  091%=      5-min Rain = 0
KBI1 101116Z 27003KT M02/M03 A3036 RMK A01 T10161029  RH  091%=      5-min Rain = 0
KBI1 101117Z 27003KT M02/M03 A3036 RMK A01 T10161029  RH  091%=      5-min Rain = 0
KBI1 101118Z 27003KT M02/M03 A3036 RMK A01 T10161029  RH  091%=      5-min Rain = 0
KBI1 101119Z 27003KT M02/M03 A3036 RMK A01 T10161029  RH  091%=      5-min Rain = 0
KBI1 101120Z 27003KT M02/M03 A3036 RMK A01 T10161029  RH  091%=      5-min Rain = 0
KBI1 101121Z 26003KT M02/M03 A3036 RMK A01 T10161029  RH  090%=      5-min Rain = 0
KBI1 101122Z 26003KT M02/M03 A3036 RMK A01 T10161030  RH  090%=      5-min Rain = 0
KBI1 101123Z 26003KT M02/M03 A3036 RMK A01 T10171030  RH  090%=      5-min Rain = 0
KBI1 101124Z 26003KT M02/M03 A3036 RMK A01 T10171031  RH  090%=      5-min Rain = 0
KBI1 101125Z 26003KT M02/M03 A3036 RMK A01 T10171031  RH  090%=      5-min Rain = 0
KBI1 101126Z 27003KT M02/M03 A3036 RMK A01 T10171031  RH  090%=      5-min Rain = 0
KBI1 101127Z 26003KT M02/M03 A3036 RMK A01 T10181031  RH  091%=      5-min Rain = 0
KBI1 101128Z 26003KT M02/M03 A3036 RMK A01 T10171031  RH  091%=      5-min Rain = 0
KBI1 101129Z 26003KT M02/M03 A3036 RMK A01 T10181031  RH  091%=      5-min Rain = 0
KBI1 101130Z 26003KT M02/M03 A3036 RMK A01 T10181030  RH  091%=      5-min Rain = 0
KBI1 101131Z 26002KT M02/M03 A3036 RMK A01 T10171030  RH  091%=      5-min Rain = 0
KBI1 101132Z 26003KT M02/M03 A3036 RMK A01 T10181030  RH  091%=      5-min Rain = 0
KBI1 101133Z 26002KT M02/M03 A3036 RMK A01 T10171029  RH  091%=      5-min Rain = 0
KBI1 101134Z 26003KT M02/M03 A3036 RMK A01 T10171029  RH  092%=      5-min Rain = 0
KBI1 101135Z 26003KT M02/M03 A3036 RMK A01 T10161028  RH  092%=      5-min Rain = 0
KBI1 101136Z 27003KT M02/M03 A3036 RMK A01 T10161027  RH  092%=      5-min Rain = 0
KBI1 101137Z 26003KT M02/M03 A3036 RMK A01 T10161027  RH  092%=      5-min Rain = 0
KBI1 101138Z 26003KT M02/M03 A3036 RMK A01 T10151027  RH  092%=      5-min Rain = 0
KBI1 101139Z 27002KT M02/M03 A3036 RMK A01 T10151027  RH  092%=      5-min Rain = 0
KBI1 101140Z 26002KT M02/M03 A3036 RMK A01 T10151027  RH  092%=      5-min Rain = 0
KBI1 101141Z 26002KT M02/M03 A3036 RMK A01 T10161028  RH  092%=      5-min Rain = 0
KBI1 101142Z 26002KT M02/M03 A3036 RMK A01 T10151027  RH  092%=      5-min Rain = 0
KBI1 101143Z 25002KT M02/M03 A3036 RMK A01 T10161028  RH  092%=      5-min Rain = 0
KBI1 101144Z 25001KT M02/M03 A3036 RMK A01 T10161028  RH  092%=      5-min Rain = 0
KBI1 101145Z 25001KT M02/M03 A3036 RMK A01 T10151027  RH  092%=      5-min Rain = 0
KBI1 101146Z 25001KT M02/M03 A3036 RMK A01 T10151026  RH  092%=      5-min Rain = 0
KBI1 101147Z 25001KT M01/M03 A3036 RMK A01 T10141025  RH  092%=      5-min Rain = 0
KBI1 101148Z 25001KT M01/M03 A3036 RMK A01 T10131025  RH  092%=      5-min Rain = 0
KBI1 101149Z 25001KT M01/M03 A3036 RMK A01 T10131025  RH  092%=      5-min Rain = 0
KBI1 101150Z 25002KT M01/M03 A3036 RMK A01 T10131025  RH  092%=      5-min Rain = 0
KBI1 101151Z 25002KT M01/M03 A3036 RMK A01 T10131025  RH  092%=      5-min Rain = 0
KBI1 101152Z 25002KT M01/M03 A3036 RMK A01 T10131025  RH  092%=      5-min Rain = 0
KBI1 101153Z 25002KT M01/M03 A3036 RMK A01 T10131026  RH  091%=      5-min Rain = 0
KBI1 101154Z 26002KT M01/M03 A3036 RMK A01 T10141026  RH  091%=      5-min Rain = 0
KBI1 101155Z 26002KT M01/M03 A3036 RMK A01 T10141026  RH  091%=      5-min Rain = 0
KBI1 101156Z 25002KT M01/M03 A3036 RMK A01 T10141027  RH  091%=      5-min Rain = 0
KBI1 101157Z 25002KT M01/M03 A3037 RMK A01 T10141026  RH  091%=      5-min Rain = 0
KBI1 101158Z 25002KT M02/M03 A3037 RMK A01 T10151027  RH  092%=      5-min Rain = 0
KBI1 101159Z 25001KT M02/M03 A3037 RMK A01 T10151027  RH  092%=      5-min Rain = 0
KBI1 101200Z 25001KT M02/M03 A3037 RMK A01 T10151027  RH  092%=      5-min Rain = 0
KBI1 101201Z 25001KT M02/M03 A3037 RMK A01 T10151027  RH  092%=      5-min Rain = 0
KBI1 101202Z 26002KT M02/M03 A3037 RMK A01 T10151027  RH  092%=      5-min Rain = 0
KBI1 101203Z 26001KT M02/M03 A3037 RMK A01 T10151027  RH  092%=      5-min Rain = 0
KBI1 101204Z 26002KT M02/M03 A3037 RMK A01 T10151027  RH  092%=      5-min Rain = 0
KBI1 101205Z 26001KT M02/M03 A3037 RMK A01 T10151027  RH  092%=      5-min Rain = 0
KBI1 101206Z 26002KT M02/M03 A3037 RMK A01 T10161027  RH  092%=      5-min Rain = 0
KBI1 101207Z 27002KT M02/M03 A3037 RMK A01 T10161027  RH  092%=      5-min Rain = 0
KBI1 101208Z 27002KT M02/M03 A3037 RMK A01 T10151026  RH  092%=      5-min Rain = 0
KBI1 101209Z 26002KT M02/M03 A3037 RMK A01 T10151026  RH  093%=      5-min Rain = 0
KBI1 101210Z 26002KT M02/M03 A3037 RMK A01 T10151026  RH  093%=      5-min Rain = 0
KBI1 101211Z 26002KT M02/M03 A3037 RMK A01 T10161026  RH  093%=      5-min Rain = 0
KBI1 101212Z 26002KT M02/M03 A3037 RMK A01 T10161026  RH  093%=      5-min Rain = 0
KBI1 101213Z 26002KT M02/M03 A3037 RMK A01 T10161026  RH  093%=      5-min Rain = 0
KBI1 101214Z 26002KT M02/M03 A3037 RMK A01 T10161027  RH  093%=      5-min Rain = 0
KBI1 101215Z 25002KT M02/M03 A3037 RMK A01 T10171027  RH  093%=      5-min Rain = 0
KBI1 101216Z 25002KT M02/M03 A3037 RMK A01 T10171027  RH  093%=      5-min Rain = 0
KBI1 101217Z 25002KT M02/M03 A3037 RMK A01 T10171027  RH  093%=      5-min Rain = 0
KBI1 101218Z 25001KT M02/M03 A3037 RMK A01 T10181027  RH  093%=      5-min Rain = 0
KBI1 101219Z 26002KT M02/M03 A3037 RMK A01 T10181027  RH  093%=      5-min Rain = 0
KBI1 101220Z 25002KT M02/M03 A3037 RMK A01 T10181027  RH  093%=      5-min Rain = 0
KBI1 101221Z 25002KT M02/M03 A3037 RMK A01 T10171027  RH  093%=      5-min Rain = 0
KBI1 101222Z 25002KT M02/M03 A3037 RMK A01 T10171027  RH  093%=      5-min Rain = 0
KBI1 101223Z 25001KT M02/M03 A3037 RMK A01 T10181027  RH  093%=      5-min Rain = 0
KBI1 101224Z 25001KT M02/M03 A3037 RMK A01 T10181027  RH  093%=      5-min Rain = 0
KBI1 101225Z 25001KT M02/M03 A3037 RMK A01 T10181027  RH  093%=      5-min Rain = 0
KBI1 101226Z 25002KT M02/M03 A3037 RMK A01 T10181028  RH  093%=      5-min Rain = 0
KBI1 101227Z 25002KT M02/M03 A3037 RMK A01 T10191028  RH  093%=      5-min Rain = 0
KBI1 101228Z 25002KT M02/M03 A3037 RMK A01 T10191029  RH  093%=      5-min Rain = 0
KBI1 101229Z 25001KT M02/M03 A3037 RMK A01 T10201029  RH  093%=      5-min Rain = 0
KBI1 101230Z 26002KT M02/M03 A3037 RMK A01 T10201029  RH  093%=      5-min Rain = 0
KBI1 101231Z 27002KT M02/M03 A3037 RMK A01 T10201029  RH  094%=      5-min Rain = 0
KBI1 101232Z 26002KT M02/M03 A3037 RMK A01 T10201029  RH  094%=      5-min Rain = 0
KBI1 101233Z 26002KT M02/M03 A3037 RMK A01 T10201029  RH  094%=      5-min Rain = 0
KBI1 101234Z 26002KT M02/M03 A3037 RMK A01 T10201029  RH  094%=      5-min Rain = 0
KBI1 101235Z 26002KT M02/M03 A3037 RMK A01 T10201028  RH  094%=      5-min Rain = 0
KBI1 101236Z 26002KT M02/M03 A3038 RMK A01 T10201029  RH  094%=      5-min Rain = 0
KBI1 101237Z 26002KT M02/M03 A3038 RMK A01 T10201029  RH  094%=      5-min Rain = 0
KBI1 101238Z 27002KT M02/M03 A3038 RMK A01 T10201029  RH  094%=      5-min Rain = 0
KBI1 101239Z 27002KT M02/M03 A3038 RMK A01 T10191027  RH  094%=      5-min Rain = 0
KBI1 101240Z 27002KT M02/M03 A3038 RMK A01 T10181026  RH  094%=      5-min Rain = 0
KBI1 101241Z 27002KT M02/M03 A3038 RMK A01 T10171025  RH  094%=      5-min Rain = 0
KBI1 101242Z 27002KT M02/M03 A3038 RMK A01 T10171025  RH  094%=      5-min Rain = 0
KBI1 101243Z 27001KT M02/M03 A3038 RMK A01 T10171025  RH  094%=      5-min Rain = 0
KBI1 101244Z 27001KT M02/M03 A3038 RMK A01 T10171025  RH  094%=      5-min Rain = 0
KBI1 101245Z 28001KT M02/M03 A3038 RMK A01 T10171025  RH  094%=      5-min Rain = 0
KBI1 101246Z 28002KT M02/M03 A3038 RMK A01 T10171025  RH  094%=      5-min Rain = 0
KBI1 101247Z 28002KT M02/M03 A3038 RMK A01 T10171025  RH  094%=      5-min Rain = 0
KBI1 101248Z 28002KT M02/M03 A3038 RMK A01 T10171025  RH  094%=      5-min Rain = 0
KBI1 101249Z 28002KT M02/M03 A3038 RMK A01 T10161025  RH  094%=      5-min Rain = 0
KBI1 101250Z 28002KT M02/M03 A3038 RMK A01 T10161025  RH  094%=      5-min Rain = 0
KBI1 101251Z 27002KT M02/M02 A3038 RMK A01 T10151024  RH  094%=      5-min Rain = 0
KBI1 101252Z 27002KT M02/M02 A3038 RMK A01 T10151024  RH  094%=      5-min Rain = 0
KBI1 101253Z 27002KT M02/M02 A3038 RMK A01 T10151024  RH  094%=      5-min Rain = 0
KBI1 101254Z 27002KT M02/M02 A3038 RMK A01 T10151024  RH  093%=      5-min Rain = 0
KBI1 101255Z 27002KT M02/M03 A3038 RMK A01 T10151025  RH  093%=      5-min Rain = 0
KBI1 101256Z 26003KT M02/M03 A3038 RMK A01 T10151025  RH  093%=      5-min Rain = 0
KBI1 101257Z 26003KT M02/M03 A3038 RMK A01 T10161025  RH  093%=      5-min Rain = 0
KBI1 101258Z 27003KT M02/M03 A3038 RMK A01 T10161026  RH  093%=      5-min Rain = 0
KBI1 101259Z 27002KT M02/M03 A3038 RMK A01 T10161026  RH  093%=      5-min Rain = 0
KBI1 101300Z 26002KT M02/M03 A3038 RMK A01 T10161026  RH  093%=      5-min Rain = 0
KBI1 101301Z 26002KT M02/M03 A3038 RMK A01 T10161026  RH  093%=      5-min Rain = 0
KBI1 101302Z 26002KT M02/M03 A3038 RMK A01 T10151025  RH  093%=      5-min Rain = 0
KBI1 101303Z 27002KT M02/M03 A3038 RMK A01 T10161026  RH  093%=      5-min Rain = 0
KBI1 101304Z 27002KT M02/M03 A3038 RMK A01 T10161026  RH  093%=      5-min Rain = 0
KBI1 101305Z 27002KT M02/M03 A3038 RMK A01 T10161026  RH  093%=      5-min Rain = 0
KBI1 101306Z 27002KT M02/M03 A3038 RMK A01 T10171027  RH  093%=      5-min Rain = 0
KBI1 101307Z 27002KT M02/M03 A3038 RMK A01 T10171027  RH  093%=      5-min Rain = 0
KBI1 101308Z 26002KT M02/M03 A3038 RMK A01 T10171027  RH  093%=      5-min Rain = 0
KBI1 101309Z 26002KT M02/M03 A3038 RMK A01 T10181028  RH  093%=      5-min Rain = 0
KBI1 101310Z 26002KT M02/M03 A3038 RMK A01 T10181028  RH  093%=      5-min Rain = 0
KBI1 101311Z 26002KT M02/M03 A3038 RMK A01 T10181028  RH  093%=      5-min Rain = 0
KBI1 101312Z 26002KT M02/M03 A3038 RMK A01 T10181028  RH  093%=      5-min Rain = 0
KBI1 101313Z 26002KT M02/M03 A3038 RMK A01 T10191028  RH  093%=      5-min Rain = 0
KBI1 101314Z 26002KT M02/M03 A3038 RMK A01 T10181028  RH  093%=      5-min Rain = 0
KBI1 101315Z 26002KT M02/M03 A3038 RMK A01 T10181028  RH  093%=      5-min Rain = 0
KBI1 101316Z 26002KT M02/M03 A3038 RMK A01 T10191028  RH  093%=      5-min Rain = 0
KBI1 101317Z 26002KT M02/M03 A3038 RMK A01 T10191029  RH  093%=      5-min Rain = 0
KBI1 101318Z 26002KT M02/M03 A3038 RMK A01 T10191029  RH  093%=      5-min Rain = 0
KBI1 101319Z 26002KT M02/M03 A3038 RMK A01 T10191029  RH  093%=      5-min Rain = 0
KBI1 101320Z 26002KT M02/M03 A3038 RMK A01 T10201029  RH  093%=      5-min Rain = 0
KBI1 101321Z 26002KT M02/M03 A3038 RMK A01 T10201030  RH  093%=      5-min Rain = 0
KBI1 101322Z 26001KT M02/M03 A3038 RMK A01 T10211031  RH  093%=      5-min Rain = 0
KBI1 101323Z 26001KT M02/M03 A3038 RMK A01 T10221032  RH  093%=      5-min Rain = 0
KBI1 101324Z 26002KT M02/M03 A3038 RMK A01 T10221031  RH  093%=      5-min Rain = 0
KBI1 101325Z 25001KT M02/M03 A3038 RMK A01 T10221031  RH  094%=      5-min Rain = 0
KBI1 101326Z 25001KT M02/M03 A3038 RMK A01 T10211030  RH  094%=      5-min Rain = 0
KBI1 101327Z 25001KT M02/M03 A3038 RMK A01 T10201029  RH  094%=      5-min Rain = 0
KBI1 101328Z 25001KT M02/M03 A3039 RMK A01 T10201029  RH  094%=      5-min Rain = 0
KBI1 101329Z 25002KT M02/M03 A3039 RMK A01 T10201029  RH  094%=      5-min Rain = 0
KBI1 101330Z 25002KT M02/M03 A3039 RMK A01 T10201029  RH  094%=      5-min Rain = 0
KBI1 101331Z 24002KT M02/M03 A3039 RMK A01 T10201028  RH  094%=      5-min Rain = 0
KBI1 101332Z 24002KT M02/M03 A3039 RMK A01 T10201029  RH  094%=      5-min Rain = 0
KBI1 101333Z 24002KT M02/M03 A3039 RMK A01 T10211030  RH  094%=      5-min Rain = 0
KBI1 101334Z 23002KT M02/M03 A3039 RMK A01 T10211030  RH  094%=      5-min Rain = 0
KBI1 101335Z 23002KT M02/M03 A3039 RMK A01 T10211030  RH  094%=      5-min Rain = 0
KBI1 101336Z 24002KT M02/M03 A3039 RMK A01 T10211030  RH  094%=      5-min Rain = 0
KBI1 101337Z 24002KT M02/M03 A3039 RMK A01 T10221030  RH  094%=      5-min Rain = 0
KBI1 101338Z 24002KT M02/M03 A3038 RMK A01 T10221030  RH  094%=      5-min Rain = 0
KBI1 101339Z 25003KT M02/M03 A3038 RMK A01 T10221030  RH  094%=      5-min Rain = 0
KBI1 101340Z 25003KT M02/M03 A3038 RMK A01 T10211029  RH  094%=      5-min Rain = 0
KBI1 101341Z 25003KT M02/M03 A3038 RMK A01 T10201028  RH  094%=      5-min Rain = 0
KBI1 101342Z 25003KT M02/M03 A3038 RMK A01 T10201028  RH  094%=      5-min Rain = 0
KBI1 101343Z 25002KT M02/M03 A3038 RMK A01 T10191027  RH  094%=      5-min Rain = 0
KBI1 101344Z 25002KT M02/M03 A3038 RMK A01 T10191028  RH  094%=      5-min Rain = 0
KBI1 101345Z 25002KT M02/M03 A3039 RMK A01 T10191027  RH  094%=      5-min Rain = 0
KBI1 101346Z 25002KT M02/M03 A3039 RMK A01 T10181026  RH  094%=      5-min Rain = 0
KBI1 101347Z 24003KT M02/M03 A3039 RMK A01 T10181026  RH  094%=      5-min Rain = 0
KBI1 101348Z 24003KT M02/M03 A3039 RMK A01 T10181026  RH  094%=      5-min Rain = 0
KBI1 101349Z 25003KT M02/M03 A3039 RMK A01 T10181027  RH  094%=      5-min Rain = 0
KBI1 101350Z 25003KT M02/M03 A3039 RMK A01 T10181028  RH  093%=      5-min Rain = 0
KBI1 101351Z 24003KT M02/M03 A3039 RMK A01 T10181028  RH  093%=      5-min Rain = 0
KBI1 101352Z 24003KT M02/M03 A3039 RMK A01 T10181028  RH  093%=      5-min Rain = 0
KBI1 101353Z 24002KT M02/M03 A3039 RMK A01 T10181028  RH  093%=      5-min Rain = 0
KBI1 101354Z 25002KT M02/M03 A3039 RMK A01 T10181028  RH  093%=      5-min Rain = 0
KBI1 101355Z 24002KT M02/M03 A3039 RMK A01 T10181028  RH  092%=      5-min Rain = 0
KBI1 101356Z 25002KT M02/M03 A3039 RMK A01 T10181029  RH  092%=      5-min Rain = 0
KBI1 101357Z 24002KT M02/M03 A3039 RMK A01 T10181029  RH  092%=      5-min Rain = 0
KBI1 101358Z 25002KT M02/M03 A3039 RMK A01 T10181029  RH  092%=      5-min Rain = 0
KBI1 101359Z 24002KT M02/M03 A3039 RMK A01 T10171028  RH  092%=      5-min Rain = 0
KBI1 101400Z 24001KT M02/M03 A3039 RMK A01 T10161027  RH  092%=      5-min Rain = 0
KBI1 101401Z 25002KT M02/M03 A3039 RMK A01 T10161027  RH  092%=      5-min Rain = 0
KBI1 101402Z 25002KT M02/M03 A3039 RMK A01 T10151026  RH  092%=      5-min Rain = 0
KBI1 101403Z 25001KT M02/M03 A3039 RMK A01 T10151026  RH  092%=      5-min Rain = 0
KBI1 101404Z 25001KT M01/M03 A3039 RMK A01 T10141025  RH  092%=      5-min Rain = 0
KBI1 101405Z 25001KT M01/M03 A3039 RMK A01 T10141025  RH  092%=      5-min Rain = 0
KBI1 101406Z 25001KT M01/M03 A3039 RMK A01 T10131025  RH  092%=      5-min Rain = 0
KBI1 101407Z 25002KT M01/M02 A3039 RMK A01 T10131024  RH  092%=      5-min Rain = 0
KBI1 101408Z 24002KT M01/M02 A3039 RMK A01 T10121024  RH  092%=      5-min Rain = 0
KBI1 101409Z 22002KT M01/M02 A3039 RMK A01 T10121024  RH  091%=      5-min Rain = 0
KBI1 101410Z 23002KT M01/M03 A3039 RMK A01 T10121025  RH  091%=      5-min Rain = 0
KBI1 101411Z 23003KT M01/M03 A3039 RMK A01 T10121025  RH  091%=      5-min Rain = 0
KBI1 101412Z 23002KT M01/M02 A3039 RMK A01 T10111024  RH  091%=      5-min Rain = 0
KBI1 101413Z 24002KT M01/M02 A3039 RMK A01 T10101023  RH  091%=      5-min Rain = 0
KBI1 101414Z 23002KT M01/M02 A3039 RMK A01 T10091022  RH  091%=      5-min Rain = 0
KBI1 101415Z 23002KT M01/M02 A3039 RMK A01 T10081021  RH  091%=      5-min Rain = 0
KBI1 101416Z 24002KT M01/M02 A3039 RMK A01 T10071021  RH  090%=      5-min Rain = 0
KBI1 101417Z 23002KT M01/M02 A3039 RMK A01 T10071021  RH  090%=      5-min Rain = 0
KBI1 101418Z 24001KT M01/M02 A3039 RMK A01 T10061021  RH  090%=      5-min Rain = 0
KBI1 101419Z 23001KT M01/M02 A3039 RMK A01 T10061021  RH  090%=      5-min Rain = 0
KBI1 101420Z 22001KT M01/M02 A3039 RMK A01 T10051021  RH  089%=      5-min Rain = 0
KBI1 101421Z 23001KT M01/M02 A3039 RMK A01 T10051021  RH  089%=      5-min Rain = 0
KBI1 101422Z 23001KT M01/M02 A3039 RMK A01 T10051021  RH  089%=      5-min Rain = 0
KBI1 101423Z 23001KT M01/M02 A3039 RMK A01 T10051021  RH  089%=      5-min Rain = 0
KBI1 101424Z 22001KT M00/M02 A3039 RMK A01 T10041021  RH  088%=      5-min Rain = 0
KBI1 101425Z 22001KT M00/M02 A3039 RMK A01 T10041021  RH  089%=      5-min Rain = 0
KBI1 101426Z 22001KT M00/M02 A304 RMK A01 T10031020  RH  089%=      5-min Rain = 0
KBI1 101427Z 23001KT M00/M02 A304 RMK A01 T10031019  RH  089%=      5-min Rain = 0
KBI1 101428Z 22001KT M00/M02 A304 RMK A01 T10031019  RH  089%=      5-min Rain = 0
KBI1 101429Z 22001KT M00/M02 A304 RMK A01 T10031019  RH  089%=      5-min Rain = 0
KBI1 101430Z 22001KT M00/M02 A304 RMK A01 T10031019  RH  089%=      5-min Rain = 0
KBI1 101431Z 22001KT M00/M02 A304 RMK A01 T10021019  RH  089%=      5-min Rain = 0
KBI1 101432Z 21001KT M00/M02 A304 RMK A01 T10021019  RH  089%=      5-min Rain = 0
KBI1 101433Z 21001KT M00/M02 A304 RMK A01 T10011018  RH  089%=      5-min Rain = 0
KBI1 101434Z 22001KT 00/02 A304 RMK A01 T00-00-16  RH  089%=      5-min Rain = 0
KBI1 101435Z 22000KT 00/M01 A304 RMK A01 T00021013  RH  090%=      5-min Rain = 0
KBI1 101436Z 22000KT 00/M01 A304 RMK A01 T00041011  RH  090%=      5-min Rain = 0
KBI1 101437Z 00000KT 01/M01 A304 RMK A01 T00061010  RH  090%=      5-min Rain = 0
KBI1 101438Z 00000KT 01/M01 A304 RMK A01 T00071009  RH  089%=      5-min Rain = 0
KBI1 101439Z 22000KT 01/M01 A304 RMK A01 T00081009  RH  088%=      5-min Rain = 0
KBI1 101440Z 22000KT 01/M01 A304 RMK A01 T00101008  RH  088%=      5-min Rain = 0
KBI1 101441Z 23001KT 01/M01 A304 RMK A01 T00121006  RH  088%=      5-min Rain = 0
KBI1 101442Z 23001KT 01/M00 A304 RMK A01 T00141004  RH  087%=      5-min Rain = 0
KBI1 101443Z 23001KT 02/M00 A304 RMK A01 T00161004  RH  087%=      5-min Rain = 0
KBI1 101444Z 23001KT 02/M01 A304 RMK A01 T00171006  RH  085%=      5-min Rain = 0
KBI1 101445Z 23001KT 02/M01 A304 RMK A01 T00171007  RH  084%=      5-min Rain = 0
KBI1 101446Z 23001KT 02/M01 A304 RMK A01 T00171009  RH  083%=      5-min Rain = 0
KBI1 101447Z 23001KT 02/M01 A304 RMK A01 T00171010  RH  082%=      5-min Rain = 0
KBI1 101448Z 22001KT 02/M01 A304 RMK A01 T00191008  RH  082%=      5-min Rain = 0
KBI1 101449Z 21001KT 02/M01 A304 RMK A01 T00201008  RH  082%=      5-min Rain = 0
KBI1 101450Z 21001KT 02/M01 A304 RMK A01 T00211007  RH  081%=      5-min Rain = 0
KBI1 101451Z 22001KT 02/M01 A304 RMK A01 T00221008  RH  081%=      5-min Rain = 0
KBI1 101452Z 22001KT 02/M01 A304 RMK A01 T00211009  RH  080%=      5-min Rain = 0
KBI1 101453Z 22001KT 02/M01 A304 RMK A01 T00211010  RH  080%=      5-min Rain = 0
KBI1 101454Z 23002KT 02/M01 A304 RMK A01 T00201011  RH  080%=      5-min Rain = 0
KBI1 101455Z 23002KT 02/M01 A3041 RMK A01 T00181012  RH  080%=      5-min Rain = 0
KBI1 101456Z 23002KT 02/M01 A3041 RMK A01 T00171013  RH  081%=      5-min Rain = 0
KBI1 101457Z 24002KT 02/M01 A3041 RMK A01 T00171011  RH  082%=      5-min Rain = 0
KBI1 101458Z 24002KT 02/M01 A3041 RMK A01 T00171010  RH  083%=      5-min Rain = 0
KBI1 101459Z 25003KT 02/M01 A3041 RMK A01 T00171009  RH  083%=      5-min Rain = 0
KBI1 101500Z 24002KT 02/M01 A3041 RMK A01 T00171009  RH  083%=      5-min Rain = 0
KBI1 101501Z 24002KT 02/M01 A3041 RMK A01 T00171008  RH  084%=      5-min Rain = 0
KBI1 101502Z 24002KT 02/M01 A3041 RMK A01 T00171006  RH  084%=      5-min Rain = 0
KBI1 101503Z 25001KT 02/M01 A3041 RMK A01 T00181005  RH  085%=      5-min Rain = 0
KBI1 101504Z 25001KT 02/M01 A3041 RMK A01 T00181005  RH  085%=      5-min Rain = 0
KBI1 101505Z 25001KT 02/M01 A3041 RMK A01 T00181006  RH  084%=      5-min Rain = 0
KBI1 101506Z 27002KT 02/M01 A3041 RMK A01 T00191005  RH  084%=      5-min Rain = 0
KBI1 101507Z 27002KT 02/M01 A3041 RMK A01 T00201005  RH  084%=      5-min Rain = 0
KBI1 101508Z 26002KT 02/M00 A3041 RMK A01 T00201004  RH  084%=      5-min Rain = 0
KBI1 101509Z 26002KT 02/M00 A3041 RMK A01 T00211003  RH  084%=      5-min Rain = 0
KBI1 101510Z 27003KT 02/M00 A3041 RMK A01 T00211002  RH  084%=      5-min Rain = 0
KBI1 101511Z 27003KT 02/M00 A3041 RMK A01 T00211004  RH  084%=      5-min Rain = 0
KBI1 101512Z 26003KT 02/M00 A3041 RMK A01 T00211003  RH  084%=      5-min Rain = 0
KBI1 101513Z 27003KT 02/M00 A3041 RMK A01 T00211003  RH  084%=      5-min Rain = 0
KBI1 101514Z 26003KT 02/M00 A3041 RMK A01 T00211002  RH  084%=      5-min Rain = 0
KBI1 101515Z 26003KT 02/M00 A3041 RMK A01 T00221001  RH  085%=      5-min Rain = 0
KBI1 101516Z 26003KT 02/00 A3041 RMK A01 T002200-0  RH  085%=      5-min Rain = 0
KBI1 101517Z 25003KT 02/M00 A3041 RMK A01 T00221001  RH  085%=      5-min Rain = 0
KBI1 101518Z 24003KT 02/00 A3041 RMK A01 T00230001  RH  085%=      5-min Rain = 0
KBI1 101519Z 25003KT 02/00 A3042 RMK A01 T00240002  RH  086%=      5-min Rain = 0
KBI1 101520Z 25004KT 02/00 A3042 RMK A01 T00240002  RH  085%=      5-min Rain = 0
KBI1 101521Z 24003KT 02/00 A3042 RMK A01 T00240002  RH  085%=      5-min Rain = 0
KBI1 101522Z 24004KT 02/00 A3042 RMK A01 T00240002  RH  085%=      5-min Rain = 0
KBI1 101523Z 25005KT 02/00 A3042 RMK A01 T00240002  RH  085%=      5-min Rain = 0
KBI1 101524Z 24004KT 02/00 A3042 RMK A01 T00240003  RH  086%=      5-min Rain = 0
KBI1 101525Z 25005KT 03/01 A3042 RMK A01 T00260006  RH  087%=      5-min Rain = 0
KBI1 101526Z 25005KT 03/01 A3042 RMK A01 T00270007  RH  087%=      5-min Rain = 0
KBI1 101527Z 25005KT 03/01 A3042 RMK A01 T00270006  RH  086%=      5-min Rain = 0
KBI1 101528Z 25005KT 03/01 A3042 RMK A01 T00260005  RH  086%=      5-min Rain = 0
KBI1 101529Z 25004KT 03/01 A3042 RMK A01 T00270006  RH  086%=      5-min Rain = 0
KBI1 101530Z 25004KT 03/01 A3042 RMK A01 T00280009  RH  087%=      5-min Rain = 0
KBI1 101531Z 24005KT 03/01 A3042 RMK A01 T00290010  RH  087%=      5-min Rain = 0
KBI1 101532Z 24005KT 03/01 A3042 RMK A01 T00300010  RH  087%=      5-min Rain = 0
KBI1 101533Z 24005KT 03/01 A3042 RMK A01 T00310011  RH  087%=      5-min Rain = 0
KBI1 101534Z 24004KT 03/01 A3042 RMK A01 T00320012  RH  087%=      5-min Rain = 0
KBI1 101535Z 25004KT 03/01 A3042 RMK A01 T00320012  RH  087%=      5-min Rain = 0
KBI1 101536Z 24005KT 03/01 A3042 RMK A01 T00330014  RH  087%=      5-min Rain = 0
KBI1 101537Z 25005KT 03/01 A3042 RMK A01 T00340014  RH  087%=      5-min Rain = 0
KBI1 101538Z 24004KT 03/02 A3042 RMK A01 T00340015  RH  087%=      5-min Rain = 0
KBI1 101539Z 24005KT 04/02 A3042 RMK A01 T00350016  RH  087%=      5-min Rain = 0
KBI1 101540Z 24004KT 04/02 A3042 RMK A01 T00350015  RH  087%=      5-min Rain = 0
KBI1 101541Z 24004KT 04/02 A3042 RMK A01 T00350015  RH  087%=      5-min Rain = 0
KBI1 101542Z 25004KT 04/02 A3042 RMK A01 T00370017  RH  087%=      5-min Rain = 0
KBI1 101543Z 25005KT 04/02 A3043 RMK A01 T00370018  RH  087%=      5-min Rain = 0
KBI1 101544Z 24005KT 04/02 A3043 RMK A01 T00380017  RH  086%=      5-min Rain = 0
KBI1 101545Z 25004KT 04/02 A3043 RMK A01 T00370017  RH  086%=      5-min Rain = 0
KBI1 101546Z 25003KT 04/02 A3043 RMK A01 T00390020  RH  087%=      5-min Rain = 0
KBI1 101547Z 24004KT 04/02 A3043 RMK A01 T00400021  RH  088%=      5-min Rain = 0
KBI1 101548Z 26004KT 04/02 A3043 RMK A01 T00410023  RH  088%=      5-min Rain = 0
KBI1 101549Z 25005KT 04/02 A3043 RMK A01 T00420021  RH  086%=      5-min Rain = 0
KBI1 101550Z 26004KT 04/02 A3043 RMK A01 T00410020  RH  086%=      5-min Rain = 0
KBI1 101551Z 26003KT 04/02 A3043 RMK A01 T00410019  RH  085%=      5-min Rain = 0
KBI1 101552Z 26004KT 04/02 A3043 RMK A01 T00420021  RH  086%=      5-min Rain = 0
KBI1 101553Z 25004KT 04/02 A3043 RMK A01 T00430022  RH  086%=      5-min Rain = 0
KBI1 101554Z 25004KT 04/02 A3043 RMK A01 T00430021  RH  086%=      5-min Rain = 0
KBI1 101555Z 26004KT 04/02 A3043 RMK A01 T00440022  RH  086%=      5-min Rain = 0
KBI1 101556Z 27004KT 04/02 A3043 RMK A01 T00440023  RH  086%=      5-min Rain = 0
KBI1 101557Z 27004KT 05/02 A3043 RMK A01 T00450022  RH  085%=      5-min Rain = 0
KBI1 101558Z 24004KT 04/02 A3043 RMK A01 T00440021  RH  085%=      5-min Rain = 0
KBI1 101559Z 24004KT 04/02 A3043 RMK A01 T00440021  RH  085%=      5-min Rain = 0
KBI1 101600Z 24004KT 05/02 A3043 RMK A01 T00450021  RH  085%=      5-min Rain = 0
KBI1 101601Z 25004KT 05/02 A3043 RMK A01 T00460024  RH  085%=      5-min Rain = 0
KBI1 101602Z 25005KT 05/03 A3043 RMK A01 T00480027  RH  086%=      5-min Rain = 0
KBI1 101603Z 25005KT 05/03 A3043 RMK A01 T00490026  RH  085%=      5-min Rain = 0
KBI1 101604Z 25005KT 05/02 A3043 RMK A01 T00490024  RH  084%=      5-min Rain = 0
KBI1 101605Z 26004KT 05/02 A3043 RMK A01 T00480023  RH  084%=      5-min Rain = 0
KBI1 101606Z 24005KT 05/02 A3043 RMK A01 T00490024  RH  084%=      5-min Rain = 0
KBI1 101607Z 26004KT 05/02 A3043 RMK A01 T00480022  RH  083%=      5-min Rain = 0
KBI1 101608Z 26004KT 05/02 A3043 RMK A01 T00480022  RH  083%=      5-min Rain = 0
KBI1 101609Z 26004KT 05/02 A3043 RMK A01 T00490024  RH  084%=      5-min Rain = 0
KBI1 101610Z 25004KT 05/03 A3043 RMK A01 T00500025  RH  084%=      5-min Rain = 0
KBI1 101611Z 26004KT 05/02 A3043 RMK A01 T00500024  RH  083%=      5-min Rain = 0
KBI1 101612Z 26004KT 05/02 A3043 RMK A01 T00500024  RH  083%=      5-min Rain = 0
KBI1 101613Z 26004KT 05/02 A3043 RMK A01 T00500024  RH  083%=      5-min Rain = 0
KBI1 101614Z 26004KT 05/02 A3043 RMK A01 T00510024  RH  083%=      5-min Rain = 0
KBI1 101615Z 26004KT 05/02 A3043 RMK A01 T00510024  RH  083%=      5-min Rain = 0
KBI1 101616Z 25005KT 05/02 A3043 RMK A01 T00510024  RH  082%=      5-min Rain = 0
KBI1 101617Z 25005KT 05/02 A3043 RMK A01 T00510021  RH  081%=      5-min Rain = 0
KBI1 101618Z 26004KT 05/02 A3043 RMK A01 T00510020  RH  081%=      5-min Rain = 0
KBI1 101619Z 25004KT 05/02 A3043 RMK A01 T00520024  RH  082%=      5-min Rain = 0
KBI1 101620Z 25005KT 05/03 A3043 RMK A01 T00540027  RH  083%=      5-min Rain = 0
KBI1 101621Z 25005KT 05/02 A3043 RMK A01 T00540023  RH  080%=      5-min Rain = 0
KBI1 101622Z 26005KT 05/02 A3043 RMK A01 T00530021  RH  080%=      5-min Rain = 0
KBI1 101623Z 26006KT 05/02 A3043 RMK A01 T00530021  RH  080%=      5-min Rain = 0
KBI1 101624Z 25004KT 05/02 A3043 RMK A01 T00530021  RH  080%=      5-min Rain = 0
KBI1 101625Z 25005KT 06/03 A3043 RMK A01 T00550026  RH  081%=      5-min Rain = 0
KBI1 101626Z 25007KT 06/02 A3043 RMK A01 T00560023  RH  079%=      5-min Rain = 0
KBI1 101627Z 24006KT 06/02 A3043 RMK A01 T00550020  RH  078%=      5-min Rain = 0
KBI1 101628Z 24005KT 05/02 A3043 RMK A01 T00540020  RH  079%=      5-min Rain = 0
KBI1 101629Z 24006KT 06/02 A3043 RMK A01 T00560024  RH  080%=      5-min Rain = 0
KBI1 101630Z 24005KT 06/02 A3043 RMK A01 T00560024  RH  079%=      5-min Rain = 0
KBI1 101631Z 24005KT 06/03 A3043 RMK A01 T00570025  RH  079%=      5-min Rain = 0
KBI1 101632Z 25006KT 06/02 A3043 RMK A01 T00580024  RH  079%=      5-min Rain = 0
KBI1 101633Z 26005KT 06/02 A3043 RMK A01 T00580022  RH  078%=      5-min Rain = 0
KBI1 101634Z 25005KT 06/02 A3043 RMK A01 T00570021  RH  078%=      5-min Rain = 0
KBI1 101635Z 25004KT 06/02 A3043 RMK A01 T00570022  RH  078%=      5-min Rain = 0
KBI1 101636Z 24005KT 06/02 A3043 RMK A01 T00580024  RH  079%=      5-min Rain = 0
KBI1 101637Z 23004KT 06/02 A3043 RMK A01 T00580023  RH  078%=      5-min Rain = 0
KBI1 101638Z 23004KT 06/02 A3043 RMK A01 T00570021  RH  078%=      5-min Rain = 0
KBI1 101639Z 23005KT 06/02 A3043 RMK A01 T00570023  RH  079%=      5-min Rain = 0
KBI1 101640Z 22005KT 06/02 A3043 RMK A01 T00580023  RH  078%=      5-min Rain = 0
KBI1 101641Z 22004KT 06/02 A3043 RMK A01 T00580023  RH  078%=      5-min Rain = 0
KBI1 101642Z 25005KT 06/03 A3043 RMK A01 T00600026  RH  079%=      5-min Rain = 0
KBI1 101643Z 24005KT 06/02 A3043 RMK A01 T00610024  RH  077%=      5-min Rain = 0
KBI1 101644Z 23006KT 06/02 A3043 RMK A01 T00610024  RH  077%=      5-min Rain = 0
KBI1 101645Z 23005KT 06/03 A3043 RMK A01 T00620025  RH  077%=      5-min Rain = 0
KBI1 101646Z 24005KT 06/03 A3043 RMK A01 T00630026  RH  077%=      5-min Rain = 0
KBI1 101647Z 25004KT 06/02 A3043 RMK A01 T00620022  RH  076%=      5-min Rain = 0
KBI1 101648Z 25003KT 06/02 A3043 RMK A01 T00600021  RH  076%=      5-min Rain = 0
KBI1 101649Z 24005KT 06/03 A3043 RMK A01 T00610025  RH  078%=      5-min Rain = 0
KBI1 101650Z 25004KT 06/02 A3043 RMK A01 T00620024  RH  077%=      5-min Rain = 0
KBI1 101651Z 23004KT 06/02 A3043 RMK A01 T00630023  RH  076%=      5-min Rain = 0
KBI1 101652Z 21005KT 06/02 A3043 RMK A01 T00630024  RH  076%=      5-min Rain = 0
KBI1 101653Z 21006KT 06/02 A3042 RMK A01 T00630024  RH  076%=      5-min Rain = 0
KBI1 101654Z 21005KT 06/02 A3042 RMK A01 T00640023  RH  075%=      5-min Rain = 0
KBI1 101655Z 23004KT 06/02 A3043 RMK A01 T00630021  RH  075%=      5-min Rain = 0
KBI1 101656Z 25004KT 06/02 A3042 RMK A01 T00620022  RH  075%=      5-min Rain = 0
KBI1 101657Z 27004KT 06/02 A3042 RMK A01 T00630022  RH  075%=      5-min Rain = 0
KBI1 101658Z 28004KT 06/02 A3042 RMK A01 T00640022  RH  074%=      5-min Rain = 0
KBI1 101659Z 27005KT 06/02 A3042 RMK A01 T00640023  RH  075%=      5-min Rain = 0
KBI1 101700Z 24004KT 07/02 A3042 RMK A01 T00650023  RH  075%=      5-min Rain = 0
KBI1 101701Z 24006KT 07/03 A3042 RMK A01 T00660025  RH  075%=      5-min Rain = 0
KBI1 101702Z 26005KT 07/02 A3042 RMK A01 T00660024  RH  074%=      5-min Rain = 0
KBI1 101703Z 26004KT 07/02 A3042 RMK A01 T00670024  RH  074%=      5-min Rain = 0
KBI1 101704Z 25003KT 07/02 A3042 RMK A01 T00660024  RH  074%=      5-min Rain = 0
KBI1 101705Z 22002KT 07/02 A3042 RMK A01 T00660023  RH  074%=      5-min Rain = 0
KBI1 101706Z 25003KT 07/02 A3042 RMK A01 T00670024  RH  074%=      5-min Rain = 0
KBI1 101707Z 24005KT 07/03 A3042 RMK A01 T00700027  RH  074%=      5-min Rain = 0
KBI1 101708Z 26004KT 07/03 A3042 RMK A01 T00710028  RH  074%=      5-min Rain = 0
KBI1 101709Z 26004KT 07/03 A3042 RMK A01 T00720025  RH  072%=      5-min Rain = 0
KBI1 101710Z 26004KT 07/02 A3042 RMK A01 T00700024  RH  073%=      5-min Rain = 0
KBI1 101711Z 26003KT 07/03 A3042 RMK A01 T00710026  RH  073%=      5-min Rain = 0
KBI1 101712Z 22003KT 07/02 A3042 RMK A01 T00710024  RH  072%=      5-min Rain = 0
KBI1 101713Z 22002KT 07/02 A3042 RMK A01 T00700023  RH  072%=      5-min Rain = 0
KBI1 101714Z 26003KT 07/03 A3042 RMK A01 T00710026  RH  073%=      5-min Rain = 0
KBI1 101715Z 26004KT 07/03 A3042 RMK A01 T00730027  RH  073%=      5-min Rain = 0
KBI1 101716Z 25003KT 07/03 A3042 RMK A01 T00730026  RH  072%=      5-min Rain = 0
KBI1 101717Z 26003KT 07/03 A3042 RMK A01 T00740025  RH  071%=      5-min Rain = 0
KBI1 101718Z 26003KT 07/03 A3042 RMK A01 T00740026  RH  071%=      5-min Rain = 0
KBI1 101719Z 27004KT 08/03 A3042 RMK A01 T00760026  RH  071%=      5-min Rain = 0
KBI1 101720Z 28003KT 08/03 A3042 RMK A01 T00760025  RH  070%=      5-min Rain = 0
KBI1 101721Z 24004KT 08/03 A3042 RMK A01 T00760025  RH  070%=      5-min Rain = 0
KBI1 101722Z 25005KT 08/03 A3042 RMK A01 T00760026  RH  071%=      5-min Rain = 0
KBI1 101723Z 26005KT 08/03 A3042 RMK A01 T00750025  RH  070%=      5-min Rain = 0
KBI1 101724Z 27005KT 08/03 A3042 RMK A01 T00750027  RH  071%=      5-min Rain = 0
KBI1 101725Z 27005KT 08/03 A3042 RMK A01 T00770026  RH  070%=      5-min Rain = 0
KBI1 101726Z 27004KT 08/03 A3042 RMK A01 T00780028  RH  070%=      5-min Rain = 0
KBI1 101727Z 26005KT 08/03 A3042 RMK A01 T00800028  RH  070%=      5-min Rain = 0
KBI1 101728Z 26005KT 08/03 A3042 RMK A01 T00790026  RH  069%=      5-min Rain = 0
KBI1 101729Z 25005KT 08/03 A3042 RMK A01 T00790029  RH  071%=      5-min Rain = 0
KBI1 101730Z 24005KT 08/03 A3042 RMK A01 T00820032  RH  070%=      5-min Rain = 0
KBI1 101731Z 26005KT 08/03 A3041 RMK A01 T00840029  RH  068%=      5-min Rain = 0
KBI1 101732Z 28005KT 08/03 A3041 RMK A01 T00830026  RH  067%=      5-min Rain = 0
KBI1 101733Z 27004KT 08/03 A3041 RMK A01 T00810025  RH  068%=      5-min Rain = 0
KBI1 101734Z 25004KT 08/03 A3041 RMK A01 T00810027  RH  069%=      5-min Rain = 0
KBI1 101735Z 27004KT 08/03 A3041 RMK A01 T00810026  RH  068%=      5-min Rain = 0
KBI1 101736Z 27005KT 08/03 A3041 RMK A01 T00820028  RH  069%=      5-min Rain = 0
KBI1 101737Z 28004KT 08/03 A3041 RMK A01 T00810027  RH  068%=      5-min Rain = 0
KBI1 101738Z 28003KT 08/03 A3041 RMK A01 T00810028  RH  069%=      5-min Rain = 0
KBI1 101739Z 24003KT 08/03 A3041 RMK A01 T00830029  RH  069%=      5-min Rain = 0
KBI1 101740Z 27004KT 09/03 A3041 RMK A01 T00850031  RH  069%=      5-min Rain = 0
KBI1 101741Z 25007KT 09/03 A3041 RMK A01 T00850032  RH  069%=      5-min Rain = 0
KBI1 101742Z 24005KT 09/03 A3041 RMK A01 T00870032  RH  069%=      5-min Rain = 0
KBI1 101743Z 23003KT 09/03 A3041 RMK A01 T00850029  RH  068%=      5-min Rain = 0
KBI1 101744Z 25004KT 08/03 A3041 RMK A01 T00840028  RH  068%=      5-min Rain = 0
KBI1 101745Z 25005KT 08/03 A3041 RMK A01 T00840030  RH  069%=      5-min Rain = 0
KBI1 101746Z 25005KT 09/03 A3041 RMK A01 T00850030  RH  069%=      5-min Rain = 0
KBI1 101747Z 24004KT 08/03 A3041 RMK A01 T00840031  RH  069%=      5-min Rain = 0
KBI1 101748Z 23003KT 08/03 A304 RMK A01 T00840029  RH  068%=      5-min Rain = 0
KBI1 101749Z 27006KT 08/03 A304 RMK A01 T00840031  RH  069%=      5-min Rain = 0
KBI1 101750Z 27005KT 09/03 A304 RMK A01 T00850033  RH  070%=      5-min Rain = 0
KBI1 101751Z 26005KT 09/03 A304 RMK A01 T00860033  RH  069%=      5-min Rain = 0
KBI1 101752Z 27005KT 09/04 A304 RMK A01 T00880035  RH  070%=      5-min Rain = 0
KBI1 101753Z 29003KT 09/03 A3041 RMK A01 T00880031  RH  067%=      5-min Rain = 0
KBI1 101754Z 29002KT 09/03 A304 RMK A01 T00860030  RH  068%=      5-min Rain = 0
KBI1 101755Z 28002KT 09/03 A304 RMK A01 T00860031  RH  069%=      5-min Rain = 0
KBI1 101756Z 26003KT 09/03 A304 RMK A01 T00860031  RH  068%=      5-min Rain = 0
KBI1 101757Z 24005KT 09/04 A304 RMK A01 T00890037  RH  070%=      5-min Rain = 0
KBI1 101758Z 24004KT 09/03 A304 RMK A01 T00890032  RH  068%=      5-min Rain = 0
KBI1 101759Z 24005KT 09/03 A304 RMK A01 T00860031  RH  068%=      5-min Rain = 0
KBI1 101800Z 23005KT 09/03 A304 RMK A01 T00860031  RH  069%=      5-min Rain = 0
KBI1 101801Z 23004KT 09/03 A304 RMK A01 T00860032  RH  069%=      5-min Rain = 0
KBI1 101802Z 19002KT 09/03 A304 RMK A01 T00860032  RH  068%=      5-min Rain = 0
KBI1 101803Z 21003KT 09/03 A304 RMK A01 T00880033  RH  068%=      5-min Rain = 0
KBI1 101804Z 28004KT 09/03 A304 RMK A01 T00890033  RH  068%=      5-min Rain = 0
KBI1 101805Z 29002KT 09/03 A304 RMK A01 T00910034  RH  068%=      5-min Rain = 0
KBI1 101806Z 28002KT 09/04 A3039 RMK A01 T00920037  RH  068%=      5-min Rain = 0
KBI1 101807Z 24003KT 09/04 A3039 RMK A01 T00940037  RH  068%=      5-min Rain = 0
KBI1 101808Z 24003KT 09/03 A3039 RMK A01 T00920034  RH  067%=      5-min Rain = 0
KBI1 101809Z 26005KT 09/04 A3039 RMK A01 T00920036  RH  068%=      5-min Rain = 0
KBI1 101810Z 30003KT 09/04 A3039 RMK A01 T00930038  RH  069%=      5-min Rain = 0
KBI1 101811Z 26004KT 09/04 A3039 RMK A01 T00940037  RH  068%=      5-min Rain = 0
KBI1 101812Z 25005KT 09/04 A3039 RMK A01 T00940036  RH  067%=      5-min Rain = 0
KBI1 101813Z 25006KT 09/04 A3039 RMK A01 T00940037  RH  068%=      5-min Rain = 0
KBI1 101814Z 26006KT 09/04 A3039 RMK A01 T00940040  RH  069%=      5-min Rain = 0
KBI1 101815Z 25007KT 10/04 A3039 RMK A01 T00960039  RH  068%=      5-min Rain = 0
KBI1 101816Z 27006KT 09/04 A3039 RMK A01 T00940036  RH  067%=      5-min Rain = 0
KBI1 101817Z 29004KT 09/03 A3039 RMK A01 T00910034  RH  068%=      5-min Rain = 0
KBI1 101818Z 27005KT 09/03 A3038 RMK A01 T00900034  RH  068%=      5-min Rain = 0
KBI1 101819Z 26006KT 09/04 A3038 RMK A01 T00900036  RH  069%=      5-min Rain = 0
KBI1 101820Z 25006KT 09/04 A3038 RMK A01 T00910038  RH  069%=      5-min Rain = 0
KBI1 101821Z 28004KT 09/04 A3038 RMK A01 T00920036  RH  068%=      5-min Rain = 0
KBI1 101822Z 28003KT 09/04 A3038 RMK A01 T00920035  RH  068%=      5-min Rain = 0
KBI1 101823Z 29004KT 09/04 A3038 RMK A01 T00920037  RH  068%=      5-min Rain = 0
KBI1 101824Z 28002KT 09/04 A3038 RMK A01 T00920035  RH  068%=      5-min Rain = 0
KBI1 101825Z 27002KT 09/04 A3038 RMK A01 T00930038  RH  069%=      5-min Rain = 0
KBI1 101826Z 27004KT 10/04 A3038 RMK A01 T00950040  RH  069%=      5-min Rain = 0
KBI1 101827Z 29006KT 10/04 A3038 RMK A01 T00960040  RH  068%=      5-min Rain = 0
KBI1 101828Z 28005KT 10/04 A3038 RMK A01 T00960038  RH  067%=      5-min Rain = 0
KBI1 101829Z 30003KT 09/04 A3038 RMK A01 T00940036  RH  067%=      5-min Rain = 0
KBI1 101830Z 29003KT 09/04 A3038 RMK A01 T00940038  RH  068%=      5-min Rain = 0
KBI1 101831Z 28006KT 10/04 A3038 RMK A01 T00960042  RH  069%=      5-min Rain = 0
KBI1 101832Z 29005KT 10/04 A3038 RMK A01 T00980040  RH  067%=      5-min Rain = 0
KBI1 101833Z 25002KT 10/04 A3037 RMK A01 T00950037  RH  067%=      5-min Rain = 0
KBI1 101834Z 24004KT 09/04 A3037 RMK A01 T00940038  RH  068%=      5-min Rain = 0
KBI1 101835Z 24005KT 10/04 A3037 RMK A01 T00960040  RH  068%=      5-min Rain = 0
KBI1 101836Z 24004KT 10/04 A3037 RMK A01 T00950039  RH  068%=      5-min Rain = 0
KBI1 101837Z 26007KT 10/04 A3037 RMK A01 T00960041  RH  068%=      5-min Rain = 0
KBI1 101838Z 26007KT 10/04 A3037 RMK A01 T00980041  RH  068%=      5-min Rain = 0
KBI1 101839Z 27006KT 10/04 A3037 RMK A01 T00970040  RH  068%=      5-min Rain = 0
KBI1 101840Z 26007KT 10/04 A3037 RMK A01 T00980043  RH  069%=      5-min Rain = 0
KBI1 101841Z 24005KT 10/04 A3037 RMK A01 T01000043  RH  068%=      5-min Rain = 0
KBI1 101842Z 23004KT 10/04 A3037 RMK A01 T01010042  RH  067%=      5-min Rain = 0
KBI1 101843Z 25005KT 10/04 A3037 RMK A01 T01000040  RH  066%=      5-min Rain = 0
KBI1 101844Z 24006KT 10/04 A3037 RMK A01 T00980039  RH  067%=      5-min Rain = 0
KBI1 101845Z 26005KT 10/04 A3037 RMK A01 T00980038  RH  066%=      5-min Rain = 0
KBI1 101846Z 28005KT 10/04 A3037 RMK A01 T00990040  RH  066%=      5-min Rain = 0
KBI1 101847Z 30006KT 10/04 A3037 RMK A01 T00990039  RH  066%=      5-min Rain = 0
KBI1 101848Z 28006KT 10/04 A3037 RMK A01 T00990040  RH  067%=      5-min Rain = 0
KBI1 101849Z 29007KT 10/04 A3037 RMK A01 T01000040  RH  066%=      5-min Rain = 0
KBI1 101850Z 28007KT 10/04 A3037 RMK A01 T01000040  RH  066%=      5-min Rain = 0
KBI1 101851Z 29006KT 10/04 A3037 RMK A01 T01000037  RH  065%=      5-min Rain = 0
KBI1 101852Z 28006KT 10/04 A3037 RMK A01 T01000040  RH  066%=      5-min Rain = 0
KBI1 101853Z 28006KT 10/04 A3036 RMK A01 T01010042  RH  067%=      5-min Rain = 0
KBI1 101854Z 28006KT 10/04 A3036 RMK A01 T01010036  RH  064%=      5-min Rain = 0
KBI1 101855Z 28006KT 10/04 A3036 RMK A01 T01000035  RH  064%=      5-min Rain = 0
KBI1 101856Z 28006KT 10/04 A3036 RMK A01 T01000037  RH  065%=      5-min Rain = 0
KBI1 101857Z 28004KT 10/04 A3036 RMK A01 T01000038  RH  065%=      5-min Rain = 0
KBI1 101858Z 27002KT 10/04 A3036 RMK A01 T00990038  RH  066%=      5-min Rain = 0
KBI1 101859Z 28006KT 10/04 A3036 RMK A01 T01000043  RH  067%=      5-min Rain = 0
KBI1 101900Z 26006KT 10/04 A3036 RMK A01 T01020043  RH  067%=      5-min Rain = 0
KBI1 101901Z 26005KT 10/04 A3036 RMK A01 T01020042  RH  066%=      5-min Rain = 0
KBI1 101902Z 26004KT 10/04 A3036 RMK A01 T01000041  RH  067%=      5-min Rain = 0
KBI1 101903Z 26006KT 10/05 A3036 RMK A01 T01020047  RH  069%=      5-min Rain = 0
KBI1 101904Z 26007KT 10/05 A3036 RMK A01 T01040045  RH  067%=      5-min Rain = 0
KBI1 101905Z 26005KT 10/04 A3036 RMK A01 T01020043  RH  067%=      5-min Rain = 0
KBI1 101906Z 25004KT 10/04 A3036 RMK A01 T01010041  RH  066%=      5-min Rain = 0
KBI1 101907Z 26005KT 10/04 A3036 RMK A01 T00990040  RH  067%=      5-min Rain = 0
KBI1 101908Z 27006KT 10/04 A3036 RMK A01 T00990043  RH  068%=      5-min Rain = 0
KBI1 101909Z 26008KT 10/05 A3036 RMK A01 T01010046  RH  069%=      5-min Rain = 0
KBI1 101910Z 26007KT 10/04 A3036 RMK A01 T01020044  RH  067%=      5-min Rain = 0
KBI1 101911Z 26007KT 10/04 A3036 RMK A01 T01020043  RH  067%=      5-min Rain = 0
KBI1 101912Z 25005KT 10/04 A3036 RMK A01 T01010041  RH  067%=      5-min Rain = 0
KBI1 101913Z 25003KT 10/04 A3036 RMK A01 T01000042  RH  067%=      5-min Rain = 0
KBI1 101914Z 26002KT 10/04 A3036 RMK A01 T01010044  RH  067%=      5-min Rain = 0
KBI1 101915Z 25003KT 10/05 A3035 RMK A01 T01030045  RH  067%=      5-min Rain = 0
KBI1 101916Z 29005KT 11/05 A3035 RMK A01 T01050047  RH  068%=      5-min Rain = 0
KBI1 101917Z 29006KT 11/05 A3035 RMK A01 T01070047  RH  066%=      5-min Rain = 0
KBI1 101918Z 30005KT 11/05 A3035 RMK A01 T01060046  RH  066%=      5-min Rain = 0
KBI1 101919Z 31005KT 11/04 A3035 RMK A01 T01050043  RH  065%=      5-min Rain = 0
KBI1 101920Z 30006KT 10/04 A3035 RMK A01 T01040044  RH  066%=      5-min Rain = 0
KBI1 101921Z 27007KT 10/05 A3035 RMK A01 T01040046  RH  067%=      5-min Rain = 0
KBI1 101922Z 26005KT 11/04 A3035 RMK A01 T01050043  RH  065%=      5-min Rain = 0
KBI1 101923Z 25005KT 10/04 A3035 RMK A01 T01040044  RH  066%=      5-min Rain = 0
KBI1 101924Z 28005KT 11/05 A3035 RMK A01 T01050047  RH  067%=      5-min Rain = 0
KBI1 101925Z 28005KT 11/05 A3035 RMK A01 T01070048  RH  067%=      5-min Rain = 0
KBI1 101926Z 30007KT 11/05 A3035 RMK A01 T01060047  RH  067%=      5-min Rain = 0
KBI1 101927Z 29007KT 11/05 A3035 RMK A01 T01050045  RH  066%=      5-min Rain = 0
KBI1 101928Z 29006KT 10/05 A3035 RMK A01 T01030045  RH  067%=      5-min Rain = 0
KBI1 101929Z 28006KT 10/05 A3035 RMK A01 T01040047  RH  068%=      5-min Rain = 0
KBI1 101930Z 30005KT 10/04 A3035 RMK A01 T01030044  RH  067%=      5-min Rain = 0
KBI1 101931Z 29005KT 10/05 A3035 RMK A01 T01020045  RH  068%=      5-min Rain = 0
KBI1 101932Z 28003KT 10/04 A3035 RMK A01 T01020044  RH  067%=      5-min Rain = 0
KBI1 101933Z 29006KT 10/05 A3035 RMK A01 T01020046  RH  068%=      5-min Rain = 0
KBI1 101934Z 29005KT 10/05 A3035 RMK A01 T01030046  RH  068%=      5-min Rain = 0
KBI1 101935Z 31004KT 10/05 A3035 RMK A01 T01040047  RH  068%=      5-min Rain = 0
KBI1 101936Z 29004KT 10/05 A3035 RMK A01 T01040047  RH  068%=      5-min Rain = 0
KBI1 101937Z 29006KT 10/05 A3035 RMK A01 T01040049  RH  068%=      5-min Rain = 0
KBI1 101938Z 28006KT 10/05 A3035 RMK A01 T01040047  RH  068%=      5-min Rain = 0
KBI1 101939Z 30007KT 10/05 A3035 RMK A01 T01040049  RH  069%=      5-min Rain = 0
KBI1 101940Z 31005KT 11/05 A3035 RMK A01 T01050047  RH  067%=      5-min Rain = 0
KBI1 101941Z 30006KT 10/05 A3035 RMK A01 T01040049  RH  069%=      5-min Rain = 0
KBI1 101942Z 30006KT 10/05 A3034 RMK A01 T01040047  RH  067%=      5-min Rain = 0
KBI1 101943Z 30005KT 10/05 A3034 RMK A01 T01040047  RH  068%=      5-min Rain = 0
KBI1 101944Z 30004KT 10/05 A3034 RMK A01 T01040046  RH  067%=      5-min Rain = 0
KBI1 101945Z 29006KT 10/05 A3034 RMK A01 T01030047  RH  068%=      5-min Rain = 0
KBI1 101946Z 30007KT 11/05 A3034 RMK A01 T01050049  RH  069%=      5-min Rain = 0
KBI1 101947Z 31005KT 10/05 A3034 RMK A01 T01030046  RH  068%=      5-min Rain = 0
KBI1 101948Z 30005KT 10/05 A3034 RMK A01 T01030048  RH  069%=      5-min Rain = 0
KBI1 101949Z 29006KT 10/05 A3034 RMK A01 T01040050  RH  069%=      5-min Rain = 0
KBI1 101950Z 30005KT 11/05 A3034 RMK A01 T01050050  RH  068%=      5-min Rain = 0
KBI1 101951Z 30006KT 11/05 A3034 RMK A01 T01070051  RH  068%=      5-min Rain = 0
KBI1 101952Z 31005KT 11/05 A3034 RMK A01 T01070049  RH  067%=      5-min Rain = 0
KBI1 101953Z 30004KT 11/05 A3034 RMK A01 T01060048  RH  067%=      5-min Rain = 0
KBI1 101954Z 31004KT 11/05 A3034 RMK A01 T01060049  RH  068%=      5-min Rain = 0
KBI1 101955Z 29006KT 11/05 A3033 RMK A01 T01060049  RH  068%=      5-min Rain = 0
KBI1 101956Z 30004KT 11/05 A3033 RMK A01 T01070048  RH  067%=      5-min Rain = 0
KBI1 101957Z 28005KT 11/05 A3033 RMK A01 T01070048  RH  067%=      5-min Rain = 0
KBI1 101958Z 28006KT 11/05 A3033 RMK A01 T01060048  RH  067%=      5-min Rain = 0
KBI1 101959Z 27005KT 11/05 A3033 RMK A01 T01070047  RH  066%=      5-min Rain = 0
KBI1 102000Z 30006KT 11/05 A3033 RMK A01 T01090051  RH  067%=      5-min Rain = 0
KBI1 102001Z 29006KT 11/05 A3033 RMK A01 T01110051  RH  067%=      5-min Rain = 0
KBI1 102002Z 31005KT 11/05 A3033 RMK A01 T01100050  RH  067%=      5-min Rain = 0
KBI1 102003Z 31006KT 11/05 A3033 RMK A01 T01090049  RH  067%=      5-min Rain = 0
KBI1 102004Z 33006KT 11/05 A3033 RMK A01 T01090051  RH  067%=      5-min Rain = 0
KBI1 102005Z 32005KT 11/05 A3033 RMK A01 T01090049  RH  066%=      5-min Rain = 0
KBI1 102006Z 31005KT 11/05 A3033 RMK A01 T01090049  RH  067%=      5-min Rain = 0
KBI1 102007Z 30007KT 11/05 A3033 RMK A01 T01090051  RH  067%=      5-min Rain = 0
KBI1 102008Z 25006KT 11/05 A3033 RMK A01 T01100050  RH  066%=      5-min Rain = 0
KBI1 102009Z 24005KT 11/05 A3033 RMK A01 T01110049  RH  066%=      5-min Rain = 0
KBI1 102010Z 26005KT 11/05 A3033 RMK A01 T01120048  RH  064%=      5-min Rain = 0
KBI1 102011Z 27003KT 11/05 A3033 RMK A01 T01130047  RH  064%=      5-min Rain = 0
KBI1 102012Z 26005KT 11/05 A3033 RMK A01 T01130049  RH  064%=      5-min Rain = 0
KBI1 102013Z 26003KT 11/05 A3033 RMK A01 T01110047  RH  065%=      5-min Rain = 0
KBI1 102014Z 24003KT 11/05 A3033 RMK A01 T01120047  RH  064%=      5-min Rain = 0
KBI1 102015Z 25005KT 11/04 A3033 RMK A01 T01130041  RH  061%=      5-min Rain = 0
KBI1 102016Z 26002KT 11/04 A3033 RMK A01 T01140036  RH  059%=      5-min Rain = 0
KBI1 102017Z 27004KT 12/04 A3033 RMK A01 T01170039  RH  059%=      5-min Rain = 0
KBI1 102018Z 25005KT 12/04 A3033 RMK A01 T01190040  RH  059%=      5-min Rain = 0
KBI1 102019Z 25004KT 12/03 A3033 RMK A01 T01170034  RH  057%=      5-min Rain = 0
KBI1 102020Z 25007KT 12/04 A3033 RMK A01 T01150036  RH  058%=      5-min Rain = 0
KBI1 102021Z 24005KT 12/04 A3033 RMK A01 T01150036  RH  058%=      5-min Rain = 0
KBI1 102022Z 24003KT 11/03 A3033 RMK A01 T01140034  RH  058%=      5-min Rain = 0
KBI1 102023Z 25003KT 11/03 A3033 RMK A01 T01130034  RH  058%=      5-min Rain = 0
KBI1 102024Z 24005KT 12/04 A3033 RMK A01 T01150036  RH  058%=      5-min Rain = 0
KBI1 102025Z 24004KT 12/03 A3033 RMK A01 T01150031  RH  056%=      5-min Rain = 0
KBI1 102026Z 28005KT 12/03 A3033 RMK A01 T01150034  RH  057%=      5-min Rain = 0
KBI1 102027Z 29005KT 12/05 A3033 RMK A01 T01150046  RH  063%=      5-min Rain = 0
KBI1 102028Z 26005KT 12/05 A3033 RMK A01 T01150049  RH  064%=      5-min Rain = 0
KBI1 102029Z 27004KT 11/05 A3033 RMK A01 T01140046  RH  063%=      5-min Rain = 0
KBI1 102030Z 30004KT 11/05 A3033 RMK A01 T01140047  RH  063%=      5-min Rain = 0
KBI1 102031Z 31003KT 11/05 A3033 RMK A01 T01140047  RH  063%=      5-min Rain = 0
KBI1 102032Z 30002KT 11/05 A3033 RMK A01 T01140047  RH  063%=      5-min Rain = 0
KBI1 102033Z 30004KT 11/05 A3032 RMK A01 T01140046  RH  063%=      5-min Rain = 0
KBI1 102034Z 29007KT 12/05 A3032 RMK A01 T01150047  RH  063%=      5-min Rain = 0
KBI1 102035Z 29006KT 11/04 A3032 RMK A01 T01140041  RH  061%=      5-min Rain = 0
KBI1 102036Z 28004KT 11/04 A3032 RMK A01 T01130040  RH  061%=      5-min Rain = 0
KBI1 102037Z 31004KT 11/04 A3032 RMK A01 T01140041  RH  061%=      5-min Rain = 0
KBI1 102038Z 31005KT 11/05 A3032 RMK A01 T01140047  RH  064%=      5-min Rain = 0
KBI1 102039Z 30005KT 11/05 A3032 RMK A01 T01130051  RH  065%=      5-min Rain = 0
KBI1 102040Z 29005KT 11/05 A3032 RMK A01 T01130050  RH  065%=      5-min Rain = 0
KBI1 102041Z 28005KT 11/05 A3032 RMK A01 T01120050  RH  066%=      5-min Rain = 0
KBI1 102042Z 31004KT 11/05 A3032 RMK A01 T01130051  RH  066%=      5-min Rain = 0
KBI1 102043Z 31006KT 11/05 A3032 RMK A01 T01130051  RH  066%=      5-min Rain = 0
KBI1 102044Z 29007KT 11/05 A3032 RMK A01 T01130048  RH  064%=      5-min Rain = 0
KBI1 102045Z 26007KT 12/03 A3032 RMK A01 T01150033  RH  057%=      5-min Rain = 0
KBI1 102046Z 27006KT 12/03 A3032 RMK A01 T01160025  RH  054%=      5-min Rain = 0
KBI1 102047Z 26005KT 12/03 A3032 RMK A01 T01160026  RH  054%=      5-min Rain = 0
KBI1 102048Z 26005KT 12/03 A3032 RMK A01 T01170027  RH  054%=      5-min Rain = 0
KBI1 102049Z 24005KT 12/04 A3032 RMK A01 T01170035  RH  057%=      5-min Rain = 0
KBI1 102050Z 30006KT 12/04 A3032 RMK A01 T01160044  RH  061%=      5-min Rain = 0
KBI1 102051Z 30007KT 12/05 A3032 RMK A01 T01150048  RH  063%=      5-min Rain = 0
KBI1 102052Z 31005KT 11/04 A3032 RMK A01 T01130042  RH  062%=      5-min Rain = 0
KBI1 102053Z 31006KT 11/05 A3032 RMK A01 T01120048  RH  064%=      5-min Rain = 0
KBI1 102054Z 31006KT 11/05 A3032 RMK A01 T01110047  RH  065%=      5-min Rain = 0
KBI1 102055Z 31004KT 11/05 A3032 RMK A01 T01090048  RH  066%=      5-min Rain = 0
KBI1 102056Z 32002KT 11/05 A3032 RMK A01 T01090049  RH  066%=      5-min Rain = 0
KBI1 102057Z 33005KT 11/05 A3032 RMK A01 T01100049  RH  066%=      5-min Rain = 0
KBI1 102058Z 32006KT 11/05 A3032 RMK A01 T01100049  RH  066%=      5-min Rain = 0
KBI1 102059Z 33004KT 11/05 A3032 RMK A01 T01110051  RH  066%=      5-min Rain = 0
KBI1 102100Z 32005KT 11/05 A3032 RMK A01 T01130051  RH  066%=      5-min Rain = 0
KBI1 102101Z 32005KT 11/05 A3032 RMK A01 T01140051  RH  065%=      5-min Rain = 0
KBI1 102102Z 32005KT 11/05 A3032 RMK A01 T01140050  RH  065%=      5-min Rain = 0
KBI1 102103Z 33004KT 11/05 A3032 RMK A01 T01130049  RH  065%=      5-min Rain = 0
KBI1 102104Z 33004KT 11/05 A3032 RMK A01 T01120049  RH  065%=      5-min Rain = 0
KBI1 102105Z 32005KT 11/05 A3032 RMK A01 T01120049  RH  065%=      5-min Rain = 0
KBI1 102106Z 31004KT 11/05 A3032 RMK A01 T01120049  RH  065%=      5-min Rain = 0
KBI1 102107Z 33004KT 11/05 A3032 RMK A01 T01130050  RH  065%=      5-min Rain = 0
KBI1 102108Z 34006KT 11/05 A3032 RMK A01 T01140051  RH  065%=      5-min Rain = 0
KBI1 102109Z 34005KT 11/05 A3032 RMK A01 T01130050  RH  065%=      5-min Rain = 0
KBI1 102110Z 33005KT 11/05 A3032 RMK A01 T01120050  RH  066%=      5-min Rain = 0
KBI1 102111Z 32005KT 11/05 A3032 RMK A01 T01120051  RH  066%=      5-min Rain = 0
KBI1 102112Z 31004KT 11/05 A3032 RMK A01 T01130050  RH  065%=      5-min Rain = 0
KBI1 102113Z 31005KT 11/05 A3032 RMK A01 T01140050  RH  065%=      5-min Rain = 0
KBI1 102114Z 30006KT 11/05 A3032 RMK A01 T01140051  RH  065%=      5-min Rain = 0
KBI1 102115Z 29005KT 11/05 A3032 RMK A01 T01140050  RH  065%=      5-min Rain = 0
KBI1 102116Z 29006KT 11/05 A3032 RMK A01 T01120049  RH  065%=      5-min Rain = 0
KBI1 102117Z 30006KT 11/05 A3032 RMK A01 T01120052  RH  066%=      5-min Rain = 0
KBI1 102118Z 30004KT 11/05 A3032 RMK A01 T01130052  RH  066%=      5-min Rain = 0
KBI1 102119Z 31005KT 11/05 A3032 RMK A01 T01120051  RH  066%=      5-min Rain = 0
KBI1 102120Z 32004KT 11/05 A3032 RMK A01 T01110050  RH  066%=      5-min Rain = 0
KBI1 102121Z 33005KT 11/05 A3032 RMK A01 T01100051  RH  067%=      5-min Rain = 0
KBI1 102122Z 33005KT 11/05 A3032 RMK A01 T01110053  RH  067%=      5-min Rain = 0
KBI1 102123Z 32005KT 11/05 A3032 RMK A01 T01120053  RH  067%=      5-min Rain = 0
KBI1 102124Z 30006KT 11/05 A3032 RMK A01 T01130052  RH  066%=      5-min Rain = 0
KBI1 102125Z 31005KT 11/05 A3032 RMK A01 T01130051  RH  065%=      5-min Rain = 0
KBI1 102126Z 31004KT 11/05 A3032 RMK A01 T01120047  RH  064%=      5-min Rain = 0
KBI1 102127Z 32004KT 11/05 A3032 RMK A01 T01110049  RH  065%=      5-min Rain = 0
KBI1 102128Z 31005KT 11/05 A3032 RMK A01 T01120052  RH  067%=      5-min Rain = 0
KBI1 102129Z 29006KT 11/05 A3032 RMK A01 T01140052  RH  066%=      5-min Rain = 0
KBI1 102130Z 29005KT 12/05 A3032 RMK A01 T01160053  RH  065%=      5-min Rain = 0
KBI1 102131Z 28004KT 12/05 A3032 RMK A01 T01170051  RH  064%=      5-min Rain = 0
KBI1 102132Z 29007KT 12/05 A3032 RMK A01 T01180050  RH  063%=      5-min Rain = 0
KBI1 102133Z 29007KT 12/05 A3032 RMK A01 T01170047  RH  062%=      5-min Rain = 0
KBI1 102134Z 29007KT 12/05 A3032 RMK A01 T01150047  RH  063%=      5-min Rain = 0
KBI1 102135Z 28006KT 11/05 A3032 RMK A01 T01130045  RH  063%=      5-min Rain = 0
KBI1 102136Z 28005KT 11/05 A3032 RMK A01 T01120046  RH  064%=      5-min Rain = 0
KBI1 102137Z 29005KT 11/05 A3032 RMK A01 T01130048  RH  064%=      5-min Rain = 0
KBI1 102138Z 30004KT 11/05 A3032 RMK A01 T01130047  RH  064%=      5-min Rain = 0
KBI1 102139Z 31004KT 11/05 A3032 RMK A01 T01130048  RH  064%=      5-min Rain = 0
KBI1 102140Z 31004KT 11/05 A3032 RMK A01 T01120049  RH  065%=      5-min Rain = 0
KBI1 102141Z 33004KT 11/05 A3032 RMK A01 T01140052  RH  066%=      5-min Rain = 0
KBI1 102142Z 32004KT 12/05 A3032 RMK A01 T01150051  RH  065%=      5-min Rain = 0
KBI1 102143Z 34004KT 11/05 A3032 RMK A01 T01140049  RH  064%=      5-min Rain = 0
KBI1 102144Z 31004KT 11/05 A3032 RMK A01 T01140049  RH  064%=      5-min Rain = 0
KBI1 102145Z 29005KT 11/05 A3032 RMK A01 T01140049  RH  064%=      5-min Rain = 0
KBI1 102146Z 30005KT 12/05 A3032 RMK A01 T01150047  RH  063%=      5-min Rain = 0
KBI1 102147Z 30004KT 11/05 A3032 RMK A01 T01140046  RH  063%=      5-min Rain = 0
KBI1 102148Z 29005KT 11/05 A3032 RMK A01 T01140048  RH  064%=      5-min Rain = 0
KBI1 102149Z 30004KT 12/05 A3032 RMK A01 T01150051  RH  065%=      5-min Rain = 0
KBI1 102150Z 29005KT 12/05 A3032 RMK A01 T01150050  RH  064%=      5-min Rain = 0
KBI1 102151Z 29005KT 12/05 A3032 RMK A01 T01150050  RH  064%=      5-min Rain = 0
KBI1 102152Z 28005KT 12/05 A3032 RMK A01 T01160048  RH  063%=      5-min Rain = 0
KBI1 102153Z 29005KT 12/05 A3032 RMK A01 T01160049  RH  063%=      5-min Rain = 0
KBI1 102154Z 29004KT 12/05 A3032 RMK A01 T01150049  RH  064%=      5-min Rain = 0
KBI1 102155Z 29004KT 12/05 A3032 RMK A01 T01150047  RH  063%=      5-min Rain = 0
KBI1 102156Z 29004KT 12/05 A3032 RMK A01 T01150048  RH  063%=      5-min Rain = 0
KBI1 102157Z 30005KT 12/05 A3032 RMK A01 T01160052  RH  064%=      5-min Rain = 0
KBI1 102158Z 29005KT 12/05 A3032 RMK A01 T01170051  RH  064%=      5-min Rain = 0
KBI1 102159Z 30004KT 12/05 A3032 RMK A01 T01170051  RH  064%=      5-min Rain = 0
KBI1 102200Z 31003KT 12/05 A3032 RMK A01 T01170050  RH  064%=      5-min Rain = 0
KBI1 102201Z 30005KT 12/05 A3032 RMK A01 T01170050  RH  064%=      5-min Rain = 0
KBI1 102202Z 30005KT 12/05 A3032 RMK A01 T01170050  RH  063%=      5-min Rain = 0
KBI1 102203Z 29006KT 12/05 A3032 RMK A01 T01160048  RH  063%=      5-min Rain = 0
KBI1 102204Z 29004KT 12/05 A3032 RMK A01 T01160047  RH  063%=      5-min Rain = 0
KBI1 102205Z 30004KT 12/05 A3032 RMK A01 T01160048  RH  063%=      5-min Rain = 0
KBI1 102206Z 30005KT 12/05 A3032 RMK A01 T01160049  RH  063%=      5-min Rain = 0
KBI1 102207Z 29004KT 12/05 A3032 RMK A01 T01160049  RH  063%=      5-min Rain = 0
KBI1 102208Z 30004KT 12/05 A3032 RMK A01 T01160049  RH  064%=      5-min Rain = 0
KBI1 102209Z 30005KT 12/05 A3032 RMK A01 T01150050  RH  064%=      5-min Rain = 0
KBI1 102210Z 30004KT 12/05 A3032 RMK A01 T01150050  RH  064%=      5-min Rain = 0
KBI1 102211Z 30004KT 11/05 A3032 RMK A01 T01140049  RH  064%=      5-min Rain = 0
KBI1 102212Z 32003KT 11/05 A3032 RMK A01 T01140048  RH  064%=      5-min Rain = 0
KBI1 102213Z 30003KT 11/05 A3032 RMK A01 T01140048  RH  064%=      5-min Rain = 0
KBI1 102214Z 30003KT 11/05 A3032 RMK A01 T01140049  RH  064%=      5-min Rain = 0
KBI1 102215Z 30003KT 11/05 A3032 RMK A01 T01140049  RH  064%=      5-min Rain = 0
KBI1 102216Z 33001KT 11/05 A3032 RMK A01 T01130048  RH  064%=      5-min Rain = 0
KBI1 102217Z 29002KT 11/05 A3032 RMK A01 T01130049  RH  065%=      5-min Rain = 0
KBI1 102218Z 33002KT 11/05 A3032 RMK A01 T01140050  RH  065%=      5-min Rain = 0
KBI1 102219Z 34002KT 12/05 A3032 RMK A01 T01150050  RH  064%=      5-min Rain = 0
KBI1 102220Z 32002KT 12/05 A3032 RMK A01 T01150049  RH  064%=      5-min Rain = 0
KBI1 102221Z 31001KT 12/05 A3032 RMK A01 T01150051  RH  065%=      5-min Rain = 0
KBI1 102222Z 29004KT 12/05 A3032 RMK A01 T01160052  RH  064%=      5-min Rain = 0
KBI1 102223Z 29005KT 12/05 A3032 RMK A01 T01170051  RH  064%=      5-min Rain = 0
KBI1 102224Z 29004KT 12/05 A3032 RMK A01 T01160050  RH  064%=      5-min Rain = 0
KBI1 102225Z 29004KT 12/05 A3032 RMK A01 T01150051  RH  065%=      5-min Rain = 0
KBI1 102226Z 27003KT 11/05 A3032 RMK A01 T01140049  RH  064%=      5-min Rain = 0
KBI1 102227Z 29002KT 11/05 A3032 RMK A01 T01140049  RH  064%=      5-min Rain = 0
KBI1 102228Z 30003KT 11/05 A3032 RMK A01 T01140050  RH  065%=      5-min Rain = 0
KBI1 102229Z 31003KT 11/05 A3032 RMK A01 T01140049  RH  065%=      5-min Rain = 0
KBI1 102230Z 27002KT 11/05 A3032 RMK A01 T01140049  RH  064%=      5-min Rain = 0
KBI1 102231Z 26002KT 11/05 A3032 RMK A01 T01140049  RH  064%=      5-min Rain = 0
KBI1 102232Z 28003KT 12/05 A3032 RMK A01 T01150049  RH  064%=      5-min Rain = 0
KBI1 102233Z 30003KT 12/05 A3032 RMK A01 T01150049  RH  064%=      5-min Rain = 0
KBI1 102234Z 27003KT 12/05 A3032 RMK A01 T01160050  RH  064%=      5-min Rain = 0
KBI1 102235Z 26003KT 12/05 A3032 RMK A01 T01160050  RH  064%=      5-min Rain = 0
KBI1 102236Z 25002KT 12/05 A3032 RMK A01 T01150049  RH  064%=      5-min Rain = 0
KBI1 102237Z 29002KT 12/05 A3032 RMK A01 T01160050  RH  064%=      5-min Rain = 0
KBI1 102238Z 26003KT 12/05 A3032 RMK A01 T01160050  RH  064%=      5-min Rain = 0
KBI1 102239Z 25003KT 12/05 A3032 RMK A01 T01170046  RH  062%=      5-min Rain = 0
KBI1 102240Z 23005KT 12/04 A3032 RMK A01 T01170043  RH  060%=      5-min Rain = 0
KBI1 102241Z 23005KT 12/03 A3032 RMK A01 T01170034  RH  057%=      5-min Rain = 0
KBI1 102242Z 22005KT 12/03 A3032 RMK A01 T01170033  RH  056%=      5-min Rain = 0
KBI1 102243Z 22004KT 12/03 A3032 RMK A01 T01170032  RH  056%=      5-min Rain = 0
KBI1 102244Z 25004KT 12/03 A3032 RMK A01 T01170034  RH  057%=      5-min Rain = 0
KBI1 102245Z 26005KT 12/03 A3032 RMK A01 T01170034  RH  057%=      5-min Rain = 0
KBI1 102246Z 25006KT 12/03 A3032 RMK A01 T01170034  RH  057%=      5-min Rain = 0
KBI1 102247Z 25006KT 12/03 A3032 RMK A01 T01170034  RH  057%=      5-min Rain = 0
KBI1 102248Z 25004KT 12/03 A3032 RMK A01 T01160032  RH  056%=      5-min Rain = 0
KBI1 102249Z 25003KT 12/03 A3032 RMK A01 T01150030  RH  056%=      5-min Rain = 0
KBI1 102250Z 25003KT 12/03 A3032 RMK A01 T01150030  RH  056%=      5-min Rain = 0
KBI1 102251Z 26005KT 12/03 A3032 RMK A01 T01150031  RH  057%=      5-min Rain = 0
KBI1 102252Z 25004KT 11/03 A3032 RMK A01 T01140033  RH  057%=      5-min Rain = 0
KBI1 102253Z 25004KT 11/03 A3032 RMK A01 T01130033  RH  058%=      5-min Rain = 0
KBI1 102254Z 24006KT 11/03 A3032 RMK A01 T01130033  RH  058%=      5-min Rain = 0
KBI1 102255Z 23005KT 11/03 A3032 RMK A01 T01130034  RH  058%=      5-min Rain = 0
KBI1 102256Z 24004KT 11/03 A3032 RMK A01 T01130033  RH  058%=      5-min Rain = 0
KBI1 102257Z 25004KT 11/03 A3032 RMK A01 T01130032  RH  058%=      5-min Rain = 0
KBI1 102258Z 25003KT 11/03 A3032 RMK A01 T01130032  RH  058%=      5-min Rain = 0
KBI1 102259Z 26003KT 11/03 A3032 RMK A01 T01130032  RH  058%=      5-min Rain = 0
KBI1 102300Z 25003KT 11/03 A3032 RMK A01 T01120033  RH  058%=      5-min Rain = 0
KBI1 102301Z 24003KT 11/03 A3032 RMK A01 T01120032  RH  058%=      5-min Rain = 0
KBI1 102302Z 23003KT 11/03 A3032 RMK A01 T01120031  RH  057%=      5-min Rain = 0
KBI1 102303Z 24002KT 11/03 A3032 RMK A01 T01130032  RH  057%=      5-min Rain = 0
KBI1 102304Z 23002KT 11/03 A3032 RMK A01 T01140032  RH  057%=      5-min Rain = 0
KBI1 102305Z 22002KT 11/03 A3032 RMK A01 T01140031  RH  057%=      5-min Rain = 0
KBI1 102306Z 22003KT 11/03 A3032 RMK A01 T01140033  RH  057%=      5-min Rain = 0
KBI1 102307Z 23003KT 11/03 A3032 RMK A01 T01140033  RH  058%=      5-min Rain = 0
KBI1 102308Z 23002KT 11/03 A3032 RMK A01 T01140032  RH  057%=      5-min Rain = 0
KBI1 102309Z 23003KT 11/03 A3032 RMK A01 T01140032  RH  057%=      5-min Rain = 0
KBI1 102310Z 23003KT 11/03 A3032 RMK A01 T01140032  RH  057%=      5-min Rain = 0
KBI1 102311Z 23004KT 11/03 A3032 RMK A01 T01140033  RH  057%=      5-min Rain = 0
KBI1 102312Z 23004KT 11/03 A3032 RMK A01 T01130032  RH  057%=      5-min Rain = 0
KBI1 102313Z 23004KT 11/03 A3032 RMK A01 T01120031  RH  057%=      5-min Rain = 0
KBI1 102314Z 23004KT 11/03 A3032 RMK A01 T01120030  RH  057%=      5-min Rain = 0
KBI1 102315Z 23005KT 11/03 A3032 RMK A01 T01120030  RH  057%=      5-min Rain = 0
KBI1 102316Z 23005KT 11/03 A3032 RMK A01 T01110029  RH  057%=      5-min Rain = 0
KBI1 102317Z 23005KT 11/03 A3032 RMK A01 T01110028  RH  057%=      5-min Rain = 0
KBI1 102318Z 23006KT 11/03 A3032 RMK A01 T01100029  RH  057%=      5-min Rain = 0
KBI1 102319Z 23005KT 11/03 A3032 RMK A01 T01090030  RH  058%=      5-min Rain = 0
KBI1 102320Z 22005KT 11/03 A3032 RMK A01 T01090030  RH  058%=      5-min Rain = 0
KBI1 102321Z 22005KT 11/03 A3032 RMK A01 T01080030  RH  058%=      5-min Rain = 0
KBI1 102322Z 23005KT 11/03 A3032 RMK A01 T01090031  RH  059%=      5-min Rain = 0
KBI1 102323Z 22005KT 11/03 A3032 RMK A01 T01090030  RH  058%=      5-min Rain = 0
KBI1 102324Z 22005KT 11/03 A3032 RMK A01 T01090030  RH  058%=      5-min Rain = 0
KBI1 102325Z 22005KT 11/03 A3032 RMK A01 T01080030  RH  058%=      5-min Rain = 0
KBI1 102326Z 22004KT 11/03 A3032 RMK A01 T01080030  RH  058%=      5-min Rain = 0
KBI1 102327Z 23003KT 11/03 A3032 RMK A01 T01080030  RH  059%=      5-min Rain = 0
KBI1 102328Z 23003KT 11/03 A3032 RMK A01 T01070031  RH  059%=      5-min Rain = 0
KBI1 102329Z 23003KT 11/03 A3032 RMK A01 T01060031  RH  060%=      5-min Rain = 0
KBI1 102330Z 23004KT 11/03 A3032 RMK A01 T01050030  RH  060%=      5-min Rain = 0
KBI1 102331Z 24004KT 10/03 A3032 RMK A01 T01040030  RH  060%=      5-min Rain = 0
KBI1 102332Z 24003KT 10/03 A3032 RMK A01 T01030030  RH  061%=      5-min Rain = 0
KBI1 102333Z 23003KT 10/03 A3032 RMK A01 T01020031  RH  061%=      5-min Rain = 0
KBI1 102334Z 24003KT 10/03 A3032 RMK A01 T01020031  RH  061%=      5-min Rain = 0
KBI1 102335Z 24002KT 10/03 A3032 RMK A01 T01000031  RH  062%=      5-min Rain = 0
KBI1 102336Z 24003KT 10/03 A3032 RMK A01 T01000031  RH  062%=      5-min Rain = 0
KBI1 102337Z 24003KT 10/03 A3032 RMK A01 T01000031  RH  062%=      5-min Rain = 0
KBI1 102338Z 25003KT 10/03 A3032 RMK A01 T01000031  RH  062%=      5-min Rain = 0
KBI1 102339Z 24002KT 10/03 A3032 RMK A01 T00990030  RH  062%=      5-min Rain = 0
KBI1 102340Z 24003KT 10/03 A3032 RMK A01 T00990030  RH  062%=      5-min Rain = 0
KBI1 102341Z 24002KT 10/03 A3032 RMK A01 T00990030  RH  062%=      5-min Rain = 0
KBI1 102342Z 24002KT 10/03 A3032 RMK A01 T00990030  RH  062%=      5-min Rain = 0
KBI1 102343Z 24002KT 10/03 A3032 RMK A01 T00990031  RH  063%=      5-min Rain = 0
KBI1 102344Z 24002KT 10/03 A3032 RMK A01 T00990030  RH  063%=      5-min Rain = 0
KBI1 102345Z 23002KT 10/03 A3033 RMK A01 T00990031  RH  062%=      5-min Rain = 0
KBI1 102346Z 24002KT 10/03 A3033 RMK A01 T00990031  RH  063%=      5-min Rain = 0
KBI1 102347Z 24002KT 10/03 A3032 RMK A01 T00990031  RH  063%=      5-min Rain = 0
KBI1 102348Z 23002KT 10/03 A3032 RMK A01 T00980032  RH  063%=      5-min Rain = 0
KBI1 102349Z 22002KT 10/03 A3032 RMK A01 T00980031  RH  063%=      5-min Rain = 0
KBI1 102350Z 22001KT 10/03 A3032 RMK A01 T00970031  RH  063%=      5-min Rain = 0
KBI1 102351Z 22001KT 10/03 A3032 RMK A01 T00960031  RH  064%=      5-min Rain = 0
KBI1 102352Z 22001KT 10/03 A3032 RMK A01 T00950031  RH  064%=      5-min Rain = 0
KBI1 102353Z 23002KT 09/03 A3032 RMK A01 T00940031  RH  065%=      5-min Rain = 0
KBI1 102354Z 23002KT 09/03 A3032 RMK A01 T00930031  RH  065%=      5-min Rain = 0
KBI1 102355Z 23002KT 09/03 A3032 RMK A01 T00920031  RH  066%=      5-min Rain = 0
KBI1 102356Z 23002KT 09/03 A3032 RMK A01 T00910031  RH  066%=      5-min Rain = 0
KBI1 102357Z 24002KT 09/03 A3032 RMK A01 T00900031  RH  066%=      5-min Rain = 0
KBI1 102358Z 23002KT 09/03 A3032 RMK A01 T00890030  RH  067%=      5-min Rain = 0
KBI1 102359Z 24002KT 09/03 A3032 RMK A01 T00880031  RH  067%=      5-min Rain = 0
KBI1 110000Z 23002KT 09/03 A3032 RMK A01 T00880031  RH  067%=      5-min Rain = 0
KBI1 110001Z 24002KT 09/03 A3032 RMK A01 T00880030  RH  067%=      5-min Rain = 0
KBI1 110002Z 24002KT 09/03 A3032 RMK A01 T00880031  RH  067%=      5-min Rain = 0
KBI1 110003Z 24002KT 09/03 A3032 RMK A01 T00880031  RH  067%=      5-min Rain = 0
KBI1 110004Z 23002KT 09/03 A3032 RMK A01 T00890031  RH  067%=      5-min Rain = 0
KBI1 110005Z 23002KT 09/03 A3032 RMK A01 T00890031  RH  067%=      5-min Rain = 0
KBI1 110006Z 23002KT 09/03 A3033 RMK A01 T00880031  RH  068%=      5-min Rain = 0
KBI1 110007Z 23001KT 09/03 A3033 RMK A01 T00870030  RH  068%=      5-min Rain = 0
KBI1 110008Z 23001KT 09/03 A3033 RMK A01 T00860030  RH  068%=      5-min Rain = 0
KBI1 110009Z 23001KT 09/03 A3033 RMK A01 T00860030  RH  068%=      5-min Rain = 0
KBI1 110010Z 23001KT 09/03 A3033 RMK A01 T00850030  RH  068%=      5-min Rain = 0
KBI1 110011Z 23001KT 08/03 A3033 RMK A01 T00840030  RH  069%=      5-min Rain = 0
KBI1 110012Z 22001KT 08/03 A3033 RMK A01 T00830030  RH  069%=      5-min Rain = 0
KBI1 110013Z 22000KT 08/03 A3033 RMK A01 T00830030  RH  070%=      5-min Rain = 0
KBI1 110014Z 22000KT 08/03 A3033 RMK A01 T00820030  RH  070%=      5-min Rain = 0
KBI1 110015Z 22001KT 08/03 A3033 RMK A01 T00810030  RH  070%=      5-min Rain = 0
KBI1 110016Z 22001KT 08/03 A3033 RMK A01 T00800029  RH  070%=      5-min Rain = 0
KBI1 110017Z 22001KT 08/03 A3033 RMK A01 T00790029  RH  070%=      5-min Rain = 0
KBI1 110018Z 22001KT 08/03 A3033 RMK A01 T00780028  RH  070%=      5-min Rain = 0
KBI1 110019Z 22001KT 08/03 A3033 RMK A01 T00770028  RH  071%=      5-min Rain = 0
KBI1 110020Z 22000KT 08/03 A3033 RMK A01 T00770029  RH  072%=      5-min Rain = 0
KBI1 110021Z 00000KT 08/03 A3033 RMK A01 T00760030  RH  072%=      5-min Rain = 0
KBI1 110022Z 00000KT 08/03 A3033 RMK A01 T00760033  RH  074%=      5-min Rain = 0
KBI1 110023Z 00000KT 08/04 A3033 RMK A01 T00760035  RH  075%=      5-min Rain = 0
KBI1 110024Z 00000KT 08/03 A3033 RMK A01 T00770034  RH  074%=      5-min Rain = 0
KBI1 110025Z 00000KT 08/03 A3033 RMK A01 T00780034  RH  073%=      5-min Rain = 0
KBI1 110026Z 01000KT 08/04 A3033 RMK A01 T00790035  RH  074%=      5-min Rain = 0
KBI1 110027Z 02002KT 08/04 A3033 RMK A01 T00790036  RH  074%=      5-min Rain = 0
KBI1 110028Z 02002KT 08/04 A3033 RMK A01 T00800037  RH  074%=      5-min Rain = 0
KBI1 110029Z 02002KT 08/04 A3033 RMK A01 T00800038  RH  075%=      5-min Rain = 0
KBI1 110030Z 02002KT 08/04 A3033 RMK A01 T00800038  RH  075%=      5-min Rain = 0
KBI1 110031Z 02001KT 08/04 A3033 RMK A01 T00800039  RH  075%=      5-min Rain = 0
KBI1 110032Z 02001KT 08/04 A3033 RMK A01 T00800040  RH  076%=      5-min Rain = 0
KBI1 110033Z 05002KT 08/04 A3033 RMK A01 T00800040  RH  076%=      5-min Rain = 0
KBI1 110034Z 05001KT 08/04 A3033 RMK A01 T00790041  RH  076%=      5-min Rain = 0
KBI1 110035Z 05002KT 08/04 A3033 RMK A01 T00790041  RH  077%=      5-min Rain = 0
KBI1 110036Z 05002KT 08/04 A3033 RMK A01 T00780042  RH  078%=      5-min Rain = 0
KBI1 110037Z 05002KT 08/04 A3033 RMK A01 T00780042  RH  078%=      5-min Rain = 0
KBI1 110038Z 06001KT 08/04 A3033 RMK A01 T00780041  RH  078%=      5-min Rain = 0
KBI1 110039Z 06001KT 08/04 A3033 RMK A01 T00780041  RH  078%=      5-min Rain = 0
KBI1 110040Z 06001KT 08/04 A3033 RMK A01 T00770040  RH  077%=      5-min Rain = 0
KBI1 110041Z 06000KT 08/04 A3033 RMK A01 T00770040  RH  078%=      5-min Rain = 0
KBI1 110042Z 06000KT 08/04 A3033 RMK A01 T00760040  RH  078%=      5-min Rain = 0
KBI1 110043Z 06000KT 08/04 A3033 RMK A01 T00760040  RH  078%=      5-min Rain = 0
KBI1 110044Z 06001KT 08/04 A3033 RMK A01 T00750041  RH  079%=      5-min Rain = 0
KBI1 110045Z 06001KT 08/04 A3033 RMK A01 T00750042  RH  079%=      5-min Rain = 0
KBI1 110046Z 09002KT 08/04 A3033 RMK A01 T00760043  RH  079%=      5-min Rain = 0
KBI1 110047Z 10002KT 08/04 A3033 RMK A01 T00770044  RH  079%=      5-min Rain = 0
KBI1 110048Z 12002KT 08/04 A3033 RMK A01 T00770043  RH  079%=      5-min Rain = 0
KBI1 110049Z 13002KT 08/04 A3033 RMK A01 T00770043  RH  079%=      5-min Rain = 0
KBI1 110050Z 11002KT 08/04 A3033 RMK A01 T00770043  RH  079%=      5-min Rain = 0
KBI1 110051Z 11002KT 08/04 A3033 RMK A01 T00770043  RH  079%=      5-min Rain = 0
KBI1 110052Z 11002KT 08/04 A3033 RMK A01 T00770042  RH  079%=      5-min Rain = 0
KBI1 110053Z 10002KT 08/04 A3033 RMK A01 T00770042  RH  078%=      5-min Rain = 0
KBI1 110054Z 11003KT 08/04 A3033 RMK A01 T00780042  RH  078%=      5-min Rain = 0
KBI1 110055Z 10002KT 08/04 A3033 RMK A01 T00780041  RH  077%=      5-min Rain = 0
KBI1 110056Z 11002KT 08/04 A3033 RMK A01 T00790042  RH  077%=      5-min Rain = 0
KBI1 110057Z 10002KT 08/04 A3033 RMK A01 T00790041  RH  077%=      5-min Rain = 0
KBI1 110058Z 10002KT 08/04 A3033 RMK A01 T00790040  RH  076%=      5-min Rain = 0
KBI1 110059Z 10002KT 08/04 A3033 RMK A01 T00790040  RH  076%=      5-min Rain = 0
KBI1 110100Z 11002KT 08/04 A3033 RMK A01 T00790040  RH  076%=      5-min Rain = 0
KBI1 110101Z 11002KT 08/04 A3033 RMK A01 T00790040  RH  076%=      5-min Rain = 0
KBI1 110102Z 12002KT 08/04 A3033 RMK A01 T00790040  RH  076%=      5-min Rain = 0
KBI1 110103Z 12002KT 08/04 A3033 RMK A01 T00780040  RH  077%=      5-min Rain = 0
KBI1 110104Z 12002KT 08/04 A3033 RMK A01 T00780040  RH  077%=      5-min Rain = 0
KBI1 110105Z 11002KT 08/04 A3033 RMK A01 T00780040  RH  077%=      5-min Rain = 0
KBI1 110106Z 10002KT 08/04 A3034 RMK A01 T00780040  RH  077%=      5-min Rain = 0
KBI1 110107Z 10002KT 08/04 A3034 RMK A01 T00780041  RH  077%=      5-min Rain = 0
KBI1 110108Z 11002KT 08/04 A3034 RMK A01 T00780041  RH  077%=      5-min Rain = 0
KBI1 110109Z 11002KT 08/04 A3034 RMK A01 T00780041  RH  077%=      5-min Rain = 0
KBI1 110110Z 10002KT 08/04 A3034 RMK A01 T00770040  RH  078%=      5-min Rain = 0
KBI1 110111Z 10002KT 08/04 A3034 RMK A01 T00760041  RH  078%=      5-min Rain = 0
KBI1 110112Z 10003KT 08/04 A3034 RMK A01 T00760041  RH  079%=      5-min Rain = 0
KBI1 110113Z 11002KT 08/04 A3034 RMK A01 T00750041  RH  079%=      5-min Rain = 0
KBI1 110114Z 10002KT 08/04 A3034 RMK A01 T00750041  RH  079%=      5-min Rain = 0
KBI1 110115Z 10003KT 08/04 A3034 RMK A01 T00750042  RH  079%=      5-min Rain = 0
KBI1 110116Z 11003KT 08/04 A3034 RMK A01 T00750042  RH  079%=      5-min Rain = 0
KBI1 110117Z 11003KT 08/04 A3034 RMK A01 T00750043  RH  080%=      5-min Rain = 0
KBI1 110118Z 12002KT 08/04 A3034 RMK A01 T00750043  RH  080%=      5-min Rain = 0
KBI1 110119Z 11003KT 08/04 A3034 RMK A01 T00750043  RH  080%=      5-min Rain = 0
KBI1 110120Z 11003KT 08/04 A3034 RMK A01 T00750043  RH  080%=      5-min Rain = 0
KBI1 110121Z 10003KT 08/04 A3034 RMK A01 T00750043  RH  081%=      5-min Rain = 0
KBI1 110122Z 10003KT 07/04 A3034 RMK A01 T00740043  RH  081%=      5-min Rain = 0
KBI1 110123Z 10002KT 07/04 A3034 RMK A01 T00740043  RH  080%=      5-min Rain = 0
KBI1 110124Z 10003KT 07/04 A3034 RMK A01 T00740043  RH  081%=      5-min Rain = 0
KBI1 110125Z 11003KT 07/04 A3034 RMK A01 T00740043  RH  081%=      5-min Rain = 0
KBI1 110126Z 11003KT 07/04 A3034 RMK A01 T00740043  RH  081%=      5-min Rain = 0
KBI1 110127Z 11003KT 07/04 A3034 RMK A01 T00730043  RH  081%=      5-min Rain = 0
KBI1 110128Z 11003KT 07/04 A3034 RMK A01 T00730043  RH  081%=      5-min Rain = 0
KBI1 110129Z 11003KT 07/04 A3034 RMK A01 T00730043  RH  081%=      5-min Rain = 0
KBI1 110130Z 11003KT 07/04 A3034 RMK A01 T00720043  RH  081%=      5-min Rain = 0
KBI1 110131Z 11003KT 07/04 A3034 RMK A01 T00720043  RH  082%=      5-min Rain = 0
KBI1 110132Z 11003KT 07/04 A3034 RMK A01 T00720043  RH  082%=      5-min Rain = 0
KBI1 110133Z 11003KT 07/04 A3034 RMK A01 T00720043  RH  082%=      5-min Rain = 0
KBI1 110134Z 10003KT 07/04 A3034 RMK A01 T00720042  RH  082%=      5-min Rain = 0
KBI1 110135Z 10003KT 07/04 A3034 RMK A01 T00720043  RH  082%=      5-min Rain = 0
KBI1 110136Z 10003KT 07/04 A3034 RMK A01 T00720043  RH  082%=      5-min Rain = 0
KBI1 110137Z 10003KT 07/04 A3034 RMK A01 T00710043  RH  082%=      5-min Rain = 0
KBI1 110138Z 10003KT 07/04 A3034 RMK A01 T00710043  RH  082%=      5-min Rain = 0
KBI1 110139Z 10003KT 07/04 A3034 RMK A01 T00710043  RH  082%=      5-min Rain = 0
KBI1 110140Z 10003KT 07/04 A3034 RMK A01 T00710043  RH  082%=      5-min Rain = 0
KBI1 110141Z 11003KT 07/04 A3034 RMK A01 T00710044  RH  083%=      5-min Rain = 0
KBI1 110142Z 11003KT 07/04 A3034 RMK A01 T00710044  RH  083%=      5-min Rain = 0
KBI1 110143Z 11003KT 07/04 A3034 RMK A01 T00710043  RH  083%=      5-min Rain = 0
KBI1 110144Z 11002KT 07/04 A3034 RMK A01 T00710043  RH  083%=      5-min Rain = 0
KBI1 110145Z 11002KT 07/04 A3034 RMK A01 T00710044  RH  083%=      5-min Rain = 0
KBI1 110146Z 11002KT 07/04 A3034 RMK A01 T00700043  RH  083%=      5-min Rain = 0
KBI1 110147Z 11002KT 07/04 A3034 RMK A01 T00710044  RH  083%=      5-min Rain = 0
KBI1 110148Z 10002KT 07/04 A3034 RMK A01 T00700044  RH  083%=      5-min Rain = 0
KBI1 110149Z 10002KT 07/04 A3034 RMK A01 T00700044  RH  083%=      5-min Rain = 0
KBI1 110150Z 10002KT 07/04 A3034 RMK A01 T00700043  RH  083%=      5-min Rain = 0
KBI1 110151Z 10002KT 07/04 A3034 RMK A01 T00700043  RH  083%=      5-min Rain = 0
KBI1 110152Z 10002KT 07/04 A3034 RMK A01 T00690043  RH  083%=      5-min Rain = 0
KBI1 110153Z 12001KT 07/04 A3035 RMK A01 T00690042  RH  083%=      5-min Rain = 0
KBI1 110154Z 12001KT 07/04 A3035 RMK A01 T00680042  RH  083%=      5-min Rain = 0
KBI1 110155Z 12001KT 07/04 A3035 RMK A01 T00670040  RH  083%=      5-min Rain = 0
KBI1 110156Z 12001KT 07/04 A3035 RMK A01 T00660039  RH  083%=      5-min Rain = 0
KBI1 110157Z 12001KT 06/04 A3035 RMK A01 T00640038  RH  084%=      5-min Rain = 0
KBI1 110158Z 12001KT 06/04 A3035 RMK A01 T00630039  RH  084%=      5-min Rain = 0
KBI1 110159Z 12002KT 06/04 A3034 RMK A01 T00630039  RH  085%=      5-min Rain = 0
KBI1 110200Z 12002KT 06/04 A3034 RMK A01 T00620040  RH  086%=      5-min Rain = 0
KBI1 110201Z 12002KT 06/04 A3034 RMK A01 T00610040  RH  086%=      5-min Rain = 0
KBI1 110202Z 13002KT 06/04 A3034 RMK A01 T00610040  RH  087%=      5-min Rain = 0
KBI1 110203Z 12002KT 06/04 A3034 RMK A01 T00610041  RH  087%=      5-min Rain = 0
KBI1 110204Z 12002KT 06/04 A3034 RMK A01 T00610042  RH  088%=      5-min Rain = 0
KBI1 110205Z 13002KT 06/04 A3034 RMK A01 T00610042  RH  088%=      5-min Rain = 0
KBI1 110206Z 13002KT 06/04 A3034 RMK A01 T00610042  RH  088%=      5-min Rain = 0
KBI1 110207Z 14002KT 06/04 A3034 RMK A01 T00620042  RH  087%=      5-min Rain = 0
KBI1 110208Z 14003KT 06/04 A3034 RMK A01 T00620042  RH  087%=      5-min Rain = 0
KBI1 110209Z 14003KT 06/04 A3034 RMK A01 T00620041  RH  086%=      5-min Rain = 0
KBI1 110210Z 14003KT 06/04 A3034 RMK A01 T00620041  RH  086%=      5-min Rain = 0
KBI1 110211Z 14003KT 06/04 A3034 RMK A01 T00620040  RH  086%=      5-min Rain = 0
KBI1 110212Z 15003KT 06/04 A3034 RMK A01 T00620039  RH  085%=      5-min Rain = 0
KBI1 110213Z 15002KT 06/04 A3034 RMK A01 T00620038  RH  085%=      5-min Rain = 0
KBI1 110214Z 15002KT 06/04 A3034 RMK A01 T00620038  RH  085%=      5-min Rain = 0
KBI1 110215Z 14002KT 06/04 A3034 RMK A01 T00620038  RH  085%=      5-min Rain = 0
KBI1 110216Z 14002KT 06/04 A3034 RMK A01 T00620038  RH  085%=      5-min Rain = 0
KBI1 110217Z 14003KT 06/04 A3034 RMK A01 T00610038  RH  085%=      5-min Rain = 0
KBI1 110218Z 15002KT 06/04 A3034 RMK A01 T00610037  RH  085%=      5-min Rain = 0
KBI1 110219Z 16002KT 06/04 A3035 RMK A01 T00600036  RH  085%=      5-min Rain = 0
KBI1 110220Z 15002KT 06/04 A3035 RMK A01 T00590036  RH  085%=      5-min Rain = 0
KBI1 110221Z 13003KT 06/04 A3035 RMK A01 T00590035  RH  085%=      5-min Rain = 0
KBI1 110222Z 13003KT 06/03 A3035 RMK A01 T00580034  RH  085%=      5-min Rain = 0
KBI1 110223Z 13002KT 06/03 A3035 RMK A01 T00580034  RH  084%=      5-min Rain = 0
KBI1 110224Z 13002KT 06/03 A3035 RMK A01 T00590034  RH  084%=      5-min Rain = 0
KBI1 110225Z 14003KT 06/03 A3035 RMK A01 T00590034  RH  084%=      5-min Rain = 0
KBI1 110226Z 14003KT 06/04 A3035 RMK A01 T00600035  RH  084%=      5-min Rain = 0
KBI1 110227Z 15002KT 06/03 A3035 RMK A01 T00590034  RH  084%=      5-min Rain = 0
KBI1 110228Z 15002KT 06/03 A3035 RMK A01 T00590033  RH  084%=      5-min Rain = 0
KBI1 110229Z 15002KT 06/03 A3035 RMK A01 T00580032  RH  083%=      5-min Rain = 0
KBI1 110230Z 14002KT 06/03 A3035 RMK A01 T00580031  RH  083%=      5-min Rain = 0
KBI1 110231Z 15002KT 06/03 A3035 RMK A01 T00570030  RH  083%=      5-min Rain = 0
KBI1 110232Z 15002KT 06/03 A3035 RMK A01 T00560030  RH  083%=      5-min Rain = 0
KBI1 110233Z 15002KT 06/03 A3035 RMK A01 T00550029  RH  084%=      5-min Rain = 0
KBI1 110234Z 16002KT 05/03 A3034 RMK A01 T00540029  RH  084%=      5-min Rain = 0
KBI1 110235Z 16002KT 05/03 A3034 RMK A01 T00530029  RH  084%=      5-min Rain = 0
KBI1 110236Z 17002KT 05/03 A3034 RMK A01 T00530029  RH  085%=      5-min Rain = 0
KBI1 110237Z 18002KT 05/03 A3034 RMK A01 T00540030  RH  085%=      5-min Rain = 0
KBI1 110238Z 18002KT 05/03 A3034 RMK A01 T00540030  RH  084%=      5-min Rain = 0
KBI1 110239Z 17002KT 06/03 A3035 RMK A01 T00550029  RH  084%=      5-min Rain = 0
KBI1 110240Z 17003KT 05/03 A3034 RMK A01 T00540028  RH  084%=      5-min Rain = 0
KBI1 110241Z 17002KT 05/03 A3035 RMK A01 T00530028  RH  084%=      5-min Rain = 0
KBI1 110242Z 15002KT 05/03 A3035 RMK A01 T00520027  RH  084%=      5-min Rain = 0
KBI1 110243Z 13002KT 05/03 A3035 RMK A01 T00500026  RH  084%=      5-min Rain = 0
KBI1 110244Z 16002KT 05/03 A3034 RMK A01 T00500028  RH  085%=      5-min Rain = 0
KBI1 110245Z 17003KT 05/03 A3034 RMK A01 T00510029  RH  086%=      5-min Rain = 0
KBI1 110246Z 17002KT 05/03 A3035 RMK A01 T00510029  RH  086%=      5-min Rain = 0
KBI1 110247Z 17002KT 05/03 A3035 RMK A01 T00510029  RH  086%=      5-min Rain = 0
KBI1 110248Z 17002KT 05/03 A3035 RMK A01 T00510029  RH  085%=      5-min Rain = 0
KBI1 110249Z 16002KT 05/03 A3035 RMK A01 T00510028  RH  085%=      5-min Rain = 0
KBI1 110250Z 16002KT 05/03 A3035 RMK A01 T00510028  RH  085%=      5-min Rain = 0
KBI1 110251Z 15002KT 05/03 A3035 RMK A01 T00500027  RH  085%=      5-min Rain = 0
KBI1 110252Z 15002KT 05/03 A3035 RMK A01 T00500027  RH  085%=      5-min Rain = 0
KBI1 110253Z 15002KT 05/03 A3035 RMK A01 T00490027  RH  086%=      5-min Rain = 0
KBI1 110254Z 14002KT 05/03 A3035 RMK A01 T00490027  RH  086%=      5-min Rain = 0
KBI1 110255Z 14002KT 05/03 A3035 RMK A01 T00490027  RH  086%=      5-min Rain = 0
KBI1 110256Z 14002KT 05/03 A3035 RMK A01 T00490027  RH  086%=      5-min Rain = 0
KBI1 110257Z 14002KT 05/03 A3035 RMK A01 T00490028  RH  086%=      5-min Rain = 0
KBI1 110258Z 14002KT 05/03 A3035 RMK A01 T00500029  RH  086%=      5-min Rain = 0
KBI1 110259Z 15002KT 05/03 A3035 RMK A01 T00500029  RH  086%=      5-min Rain = 0
KBI1 110300Z 15002KT 05/03 A3035 RMK A01 T00500029  RH  086%=      5-min Rain = 0
KBI1 110301Z 15002KT 05/03 A3035 RMK A01 T00500029  RH  086%=      5-min Rain = 0
KBI1 110302Z 15002KT 05/03 A3035 RMK A01 T00500028  RH  086%=      5-min Rain = 0
KBI1 110303Z 15002KT 05/03 A3035 RMK A01 T00490028  RH  086%=      5-min Rain = 0
KBI1 110304Z 15002KT 05/03 A3035 RMK A01 T00490027  RH  086%=      5-min Rain = 0
KBI1 110305Z 15002KT 05/03 A3035 RMK A01 T00480025  RH  085%=      5-min Rain = 0
KBI1 110306Z 13003KT 05/03 A3035 RMK A01 T00470025  RH  085%=      5-min Rain = 0
KBI1 110307Z 13002KT 05/03 A3035 RMK A01 T00470025  RH  086%=      5-min Rain = 0
KBI1 110308Z 14002KT 05/03 A3035 RMK A01 T00460026  RH  086%=      5-min Rain = 0
KBI1 110309Z 13002KT 05/03 A3035 RMK A01 T00460026  RH  087%=      5-min Rain = 0
KBI1 110310Z 13002KT 05/03 A3035 RMK A01 T00460026  RH  087%=      5-min Rain = 0
KBI1 110311Z 14003KT 05/03 A3035 RMK A01 T00470027  RH  087%=      5-min Rain = 0
KBI1 110312Z 14002KT 05/03 A3035 RMK A01 T00470028  RH  087%=      5-min Rain = 0
KBI1 110313Z 14002KT 05/03 A3035 RMK A01 T00480028  RH  087%=      5-min Rain = 0
KBI1 110314Z 14003KT 05/03 A3035 RMK A01 T00480028  RH  087%=      5-min Rain = 0
KBI1 110315Z 14003KT 05/03 A3035 RMK A01 T00480028  RH  087%=      5-min Rain = 0
KBI1 110316Z 13003KT 05/03 A3035 RMK A01 T00480028  RH  087%=      5-min Rain = 0
KBI1 110317Z 13003KT 05/03 A3035 RMK A01 T00480028  RH  087%=      5-min Rain = 0
KBI1 110318Z 13003KT 05/03 A3035 RMK A01 T00480028  RH  087%=      5-min Rain = 0
KBI1 110319Z 13003KT 05/03 A3035 RMK A01 T00480027  RH  087%=      5-min Rain = 0
KBI1 110320Z 12003KT 05/03 A3035 RMK A01 T00480027  RH  086%=      5-min Rain = 0
KBI1 110321Z 12003KT 05/03 A3035 RMK A01 T00470026  RH  086%=      5-min Rain = 0
KBI1 110322Z 11003KT 05/03 A3035 RMK A01 T00470026  RH  087%=      5-min Rain = 0
KBI1 110323Z 12003KT 05/03 A3035 RMK A01 T00470026  RH  087%=      5-min Rain = 0
KBI1 110324Z 11003KT 05/03 A3035 RMK A01 T00470027  RH  087%=      5-min Rain = 0
KBI1 110325Z 11003KT 05/03 A3035 RMK A01 T00460026  RH  087%=      5-min Rain = 0
KBI1 110326Z 11003KT 05/03 A3035 RMK A01 T00460026  RH  087%=      5-min Rain = 0
KBI1 110327Z 11003KT 05/03 A3035 RMK A01 T00460026  RH  087%=      5-min Rain = 0
KBI1 110328Z 11003KT 05/03 A3035 RMK A01 T00460026  RH  087%=      5-min Rain = 0
KBI1 110329Z 11003KT 05/03 A3035 RMK A01 T00460025  RH  087%=      5-min Rain = 0
KBI1 110330Z 11003KT 05/02 A3035 RMK A01 T00450024  RH  087%=      5-min Rain = 0
KBI1 110331Z 11003KT 05/03 A3035 RMK A01 T00450025  RH  087%=      5-min Rain = 0
KBI1 110332Z 11003KT 05/02 A3035 RMK A01 T00450024  RH  087%=      5-min Rain = 0
KBI1 110333Z 12003KT 05/02 A3035 RMK A01 T00450024  RH  087%=      5-min Rain = 0
KBI1 110334Z 11004KT 05/02 A3035 RMK A01 T00450024  RH  087%=      5-min Rain = 0
KBI1 110335Z 11004KT 04/02 A3035 RMK A01 T00440024  RH  087%=      5-min Rain = 0
KBI1 110336Z 11004KT 04/02 A3035 RMK A01 T00440023  RH  086%=      5-min Rain = 0
KBI1 110337Z 12004KT 04/02 A3035 RMK A01 T00440023  RH  086%=      5-min Rain = 0
KBI1 110338Z 12003KT 04/02 A3035 RMK A01 T00440023  RH  086%=      5-min Rain = 0
KBI1 110339Z 12003KT 04/02 A3035 RMK A01 T00440022  RH  086%=      5-min Rain = 0
KBI1 110340Z 12003KT 04/02 A3035 RMK A01 T00440022  RH  086%=      5-min Rain = 0
KBI1 110341Z 12003KT 04/02 A3035 RMK A01 T00440022  RH  086%=      5-min Rain = 0
KBI1 110342Z 13003KT 04/02 A3035 RMK A01 T00430021  RH  086%=      5-min Rain = 0
KBI1 110343Z 13003KT 04/02 A3035 RMK A01 T00430021  RH  085%=      5-min Rain = 0
KBI1 110344Z 13003KT 04/02 A3035 RMK A01 T00430020  RH  085%=      5-min Rain = 0
KBI1 110345Z 13003KT 04/02 A3035 RMK A01 T00430021  RH  085%=      5-min Rain = 0
KBI1 110346Z 13003KT 04/02 A3035 RMK A01 T00430021  RH  085%=      5-min Rain = 0
KBI1 110347Z 14003KT 04/02 A3035 RMK A01 T00430020  RH  085%=      5-min Rain = 0
KBI1 110348Z 14003KT 04/02 A3035 RMK A01 T00430020  RH  085%=      5-min Rain = 0
KBI1 110349Z 14003KT 04/02 A3035 RMK A01 T00430019  RH  085%=      5-min Rain = 0
KBI1 110350Z 14003KT 04/02 A3035 RMK A01 T00430019  RH  085%=      5-min Rain = 0
KBI1 110351Z 15003KT 04/02 A3035 RMK A01 T00420019  RH  085%=      5-min Rain = 0
KBI1 110352Z 15003KT 04/02 A3035 RMK A01 T00410018  RH  085%=      5-min Rain = 0
KBI1 110353Z 15003KT 04/02 A3034 RMK A01 T00410018  RH  085%=      5-min Rain = 0
KBI1 110354Z 16003KT 04/02 A3034 RMK A01 T00400017  RH  085%=      5-min Rain = 0
KBI1 110355Z 16003KT 04/02 A3034 RMK A01 T00390017  RH  086%=      5-min Rain = 0
KBI1 110356Z 15003KT 04/02 A3034 RMK A01 T00380016  RH  086%=      5-min Rain = 0
KBI1 110357Z 16003KT 04/02 A3034 RMK A01 T00370016  RH  086%=      5-min Rain = 0
KBI1 110358Z 16003KT 04/02 A3034 RMK A01 T00370016  RH  087%=      5-min Rain = 0
KBI1 110359Z 15003KT 04/02 A3034 RMK A01 T00360017  RH  087%=      5-min Rain = 0
KBI1 110400Z 15003KT 04/02 A3034 RMK A01 T00370018  RH  087%=      5-min Rain = 0
KBI1 110401Z 15003KT 04/02 A3034 RMK A01 T00370018  RH  088%=      5-min Rain = 0
KBI1 110402Z 15003KT 04/02 A3035 RMK A01 T00370018  RH  088%=      5-min Rain = 0
KBI1 110403Z 15003KT 04/02 A3035 RMK A01 T00370019  RH  088%=      5-min Rain = 0
KBI1 110404Z 15003KT 04/02 A3035 RMK A01 T00370018  RH  088%=      5-min Rain = 0
KBI1 110405Z 14003KT 04/02 A3035 RMK A01 T00370018  RH  088%=      5-min Rain = 0
KBI1 110406Z 13004KT 04/02 A3035 RMK A01 T00370018  RH  088%=      5-min Rain = 0
KBI1 110407Z 13004KT 04/02 A3035 RMK A01 T00380019  RH  088%=      5-min Rain = 0
KBI1 110408Z 13004KT 04/02 A3035 RMK A01 T00380019  RH  087%=      5-min Rain = 0
KBI1 110409Z 14004KT 04/02 A3035 RMK A01 T00390020  RH  087%=      5-min Rain = 0
KBI1 110410Z 13004KT 04/02 A3035 RMK A01 T00400019  RH  086%=      5-min Rain = 0
KBI1 110411Z 14004KT 04/02 A3035 RMK A01 T00400019  RH  086%=      5-min Rain = 0
KBI1 110412Z 14004KT 04/02 A3035 RMK A01 T00410019  RH  086%=      5-min Rain = 0
KBI1 110413Z 14004KT 04/02 A3035 RMK A01 T00410019  RH  086%=      5-min Rain = 0
KBI1 110414Z 15004KT 04/02 A3035 RMK A01 T00420019  RH  085%=      5-min Rain = 0
KBI1 110415Z 15004KT 04/02 A3035 RMK A01 T00420019  RH  085%=      5-min Rain = 0
KBI1 110416Z 15004KT 04/02 A3035 RMK A01 T00430019  RH  085%=      5-min Rain = 0
KBI1 110417Z 15004KT 04/02 A3035 RMK A01 T00420018  RH  084%=      5-min Rain = 0
KBI1 110418Z 15005KT 04/02 A3034 RMK A01 T00420018  RH  084%=      5-min Rain = 0
KBI1 110419Z 15004KT 04/02 A3034 RMK A01 T00420017  RH  084%=      5-min Rain = 0
KBI1 110420Z 15004KT 04/02 A3034 RMK A01 T00410017  RH  084%=      5-min Rain = 0
KBI1 110421Z 15004KT 04/02 A3034 RMK A01 T00410017  RH  084%=      5-min Rain = 0
KBI1 110422Z 15004KT 04/02 A3034 RMK A01 T00410017  RH  085%=      5-min Rain = 0
KBI1 110423Z 15005KT 04/02 A3034 RMK A01 T00410017  RH  085%=      5-min Rain = 0
KBI1 110424Z 15004KT 04/02 A3034 RMK A01 T00410017  RH  085%=      5-min Rain = 0
KBI1 110425Z 15005KT 04/02 A3034 RMK A01 T00400016  RH  084%=      5-min Rain = 0
KBI1 110426Z 16005KT 04/01 A3034 RMK A01 T00390014  RH  084%=      5-min Rain = 0
KBI1 110427Z 16005KT 04/01 A3034 RMK A01 T00380013  RH  084%=      5-min Rain = 0
KBI1 110428Z 15005KT 04/01 A3034 RMK A01 T00370014  RH  085%=      5-min Rain = 0
KBI1 110429Z 15005KT 04/01 A3034 RMK A01 T00370014  RH  085%=      5-min Rain = 0
KBI1 110430Z 16005KT 04/01 A3034 RMK A01 T00370014  RH  085%=      5-min Rain = 0
KBI1 110431Z 16006KT 04/01 A3034 RMK A01 T00360014  RH  085%=      5-min Rain = 0
KBI1 110432Z 16006KT 04/01 A3035 RMK A01 T00370014  RH  085%=      5-min Rain = 0
KBI1 110433Z 16005KT 04/01 A3035 RMK A01 T00360014  RH  085%=      5-min Rain = 0
KBI1 110434Z 17005KT 04/01 A3035 RMK A01 T00360014  RH  085%=      5-min Rain = 0
KBI1 110435Z 17005KT 04/01 A3035 RMK A01 T00360013  RH  085%=      5-min Rain = 0
KBI1 110436Z 16006KT 04/01 A3035 RMK A01 T00350012  RH  085%=      5-min Rain = 0
KBI1 110437Z 17006KT 03/01 A3035 RMK A01 T00340012  RH  086%=      5-min Rain = 0
KBI1 110438Z 17005KT 03/01 A3035 RMK A01 T00340013  RH  086%=      5-min Rain = 0
KBI1 110439Z 17006KT 03/01 A3035 RMK A01 T00340013  RH  086%=      5-min Rain = 0
KBI1 110440Z 17005KT 03/01 A3035 RMK A01 T00340013  RH  086%=      5-min Rain = 0
KBI1 110441Z 17006KT 03/01 A3035 RMK A01 T00340013  RH  086%=      5-min Rain = 0
KBI1 110442Z 17005KT 03/01 A3035 RMK A01 T00340013  RH  087%=      5-min Rain = 0
KBI1 110443Z 16005KT 03/01 A3035 RMK A01 T00330014  RH  087%=      5-min Rain = 0
KBI1 110444Z 16005KT 03/01 A3035 RMK A01 T00330013  RH  087%=      5-min Rain = 0
KBI1 110445Z 16005KT 03/01 A3035 RMK A01 T00330014  RH  087%=      5-min Rain = 0
KBI1 110446Z 17005KT 03/01 A3034 RMK A01 T00330014  RH  087%=      5-min Rain = 0
KBI1 110447Z 16005KT 03/01 A3034 RMK A01 T00330014  RH  087%=      5-min Rain = 0
KBI1 110448Z 16005KT 03/01 A3034 RMK A01 T00330014  RH  087%=      5-min Rain = 0
KBI1 110449Z 16005KT 03/01 A3034 RMK A01 T00340014  RH  087%=      5-min Rain = 0
KBI1 110450Z 16006KT 03/01 A3034 RMK A01 T00340014  RH  087%=      5-min Rain = 0
KBI1 110451Z 17005KT 03/01 A3034 RMK A01 T00340014  RH  087%=      5-min Rain = 0
KBI1 110452Z 16005KT 03/01 A3034 RMK A01 T00340014  RH  087%=      5-min Rain = 0
KBI1 110453Z 16005KT 03/01 A3034 RMK A01 T00340014  RH  087%=      5-min Rain = 0
KBI1 110454Z 16005KT 03/01 A3034 RMK A01 T00340014  RH  087%=      5-min Rain = 0
KBI1 110455Z 16005KT 04/02 A3034 RMK A01 T00350015  RH  087%=      5-min Rain = 0
KBI1 110456Z 16006KT 04/02 A3034 RMK A01 T00350015  RH  087%=      5-min Rain = 0
KBI1 110457Z 16005KT 04/02 A3034 RMK A01 T00360016  RH  087%=      5-min Rain = 0
KBI1 110458Z 16005KT 04/02 A3034 RMK A01 T00370016  RH  087%=      5-min Rain = 0
KBI1 110459Z 16005KT 04/02 A3034 RMK A01 T00370016  RH  086%=      5-min Rain = 0
KBI1 110500Z 16005KT 04/02 A3034 RMK A01 T00370016  RH  086%=      5-min Rain = 0
KBI1 110501Z 16005KT 04/02 A3034 RMK A01 T00380017  RH  086%=      5-min Rain = 0
KBI1 110502Z 16005KT 04/02 A3034 RMK A01 T00380016  RH  086%=      5-min Rain = 0
KBI1 110503Z 16005KT 04/02 A3034 RMK A01 T00380016  RH  085%=      5-min Rain = 0
KBI1 110504Z 15004KT 04/02 A3034 RMK A01 T00380016  RH  085%=      5-min Rain = 0
KBI1 110505Z 15004KT 04/02 A3034 RMK A01 T00390017  RH  085%=      5-min Rain = 0
KBI1 110506Z 14004KT 04/02 A3034 RMK A01 T00390017  RH  086%=      5-min Rain = 0
KBI1 110507Z 15005KT 04/02 A3034 RMK A01 T00400017  RH  085%=      5-min Rain = 0
KBI1 110508Z 14005KT 04/02 A3034 RMK A01 T00400017  RH  085%=      5-min Rain = 0
KBI1 110509Z 15004KT 04/02 A3034 RMK A01 T00400017  RH  085%=      5-min Rain = 0
KBI1 110510Z 15004KT 04/02 A3034 RMK A01 T00400017  RH  085%=      5-min Rain = 0
KBI1 110511Z 15004KT 04/02 A3034 RMK A01 T00410018  RH  085%=      5-min Rain = 0
KBI1 110512Z 15004KT 04/02 A3034 RMK A01 T00410017  RH  085%=      5-min Rain = 0
KBI1 110513Z 16004KT 04/02 A3034 RMK A01 T00410017  RH  085%=      5-min Rain = 0
KBI1 110514Z 16004KT 04/02 A3034 RMK A01 T00400016  RH  084%=      5-min Rain = 0
KBI1 110515Z 16004KT 04/02 A3034 RMK A01 T00400016  RH  085%=      5-min Rain = 0
KBI1 110516Z 16004KT 04/02 A3034 RMK A01 T00390015  RH  085%=      5-min Rain = 0
KBI1 110517Z 16004KT 04/02 A3034 RMK A01 T00390016  RH  085%=      5-min Rain = 0
KBI1 110518Z 15005KT 04/02 A3034 RMK A01 T00380015  RH  085%=      5-min Rain = 0
KBI1 110519Z 15004KT 04/02 A3034 RMK A01 T00380015  RH  085%=      5-min Rain = 0
KBI1 110520Z 15005KT 04/02 A3034 RMK A01 T00380016  RH  085%=      5-min Rain = 0
KBI1 110521Z 15005KT 04/02 A3034 RMK A01 T00380015  RH  085%=      5-min Rain = 0
KBI1 110522Z 15005KT 04/02 A3034 RMK A01 T00380016  RH  085%=      5-min Rain = 0
KBI1 110523Z 15005KT 04/02 A3034 RMK A01 T00380016  RH  086%=      5-min Rain = 0
KBI1 110524Z 15005KT 04/02 A3033 RMK A01 T00380016  RH  085%=      5-min Rain = 0
KBI1 110525Z 15005KT 04/02 A3033 RMK A01 T00380016  RH  085%=      5-min Rain = 0
KBI1 110526Z 14004KT 04/02 A3033 RMK A01 T00380015  RH  085%=      5-min Rain = 0
KBI1 110527Z 14004KT 04/02 A3033 RMK A01 T00380016  RH  085%=      5-min Rain = 0
KBI1 110528Z 14004KT 04/02 A3033 RMK A01 T00380016  RH  085%=      5-min Rain = 0
KBI1 110529Z 14004KT 04/02 A3033 RMK A01 T00380015  RH  085%=      5-min Rain = 0
KBI1 110530Z 14004KT 04/02 A3033 RMK A01 T00380016  RH  085%=      5-min Rain = 0
KBI1 110531Z 14003KT 04/02 A3033 RMK A01 T00390016  RH  085%=      5-min Rain = 0
KBI1 110532Z 14003KT 04/02 A3033 RMK A01 T00390015  RH  085%=      5-min Rain = 0
KBI1 110533Z 14004KT 04/02 A3033 RMK A01 T00390016  RH  085%=      5-min Rain = 0
KBI1 110534Z 14004KT 04/02 A3033 RMK A01 T00390016  RH  085%=      5-min Rain = 0
KBI1 110535Z 15003KT 04/02 A3033 RMK A01 T00390016  RH  085%=      5-min Rain = 0
KBI1 110536Z 15004KT 04/02 A3033 RMK A01 T00380015  RH  085%=      5-min Rain = 0
KBI1 110537Z 15003KT 04/02 A3033 RMK A01 T00380015  RH  085%=      5-min Rain = 0
KBI1 110538Z 15004KT 04/02 A3034 RMK A01 T00380015  RH  085%=      5-min Rain = 0
KBI1 110539Z 16004KT 04/02 A3034 RMK A01 T00370015  RH  085%=      5-min Rain = 0
KBI1 110540Z 16004KT 04/01 A3034 RMK A01 T00370014  RH  085%=      5-min Rain = 0
KBI1 110541Z 15004KT 04/01 A3034 RMK A01 T00370014  RH  085%=      5-min Rain = 0
KBI1 110542Z 16004KT 04/01 A3034 RMK A01 T00360014  RH  085%=      5-min Rain = 0
KBI1 110543Z 15004KT 04/01 A3033 RMK A01 T00360014  RH  085%=      5-min Rain = 0
KBI1 110544Z 15004KT 04/01 A3033 RMK A01 T00360014  RH  085%=      5-min Rain = 0
KBI1 110545Z 15005KT 04/01 A3033 RMK A01 T00360014  RH  086%=      5-min Rain = 0
KBI1 110546Z 15005KT 04/01 A3033 RMK A01 T00360014  RH  086%=      5-min Rain = 0
KBI1 110547Z 15005KT 04/01 A3034 RMK A01 T00360014  RH  086%=      5-min Rain = 0
KBI1 110548Z 16005KT 04/01 A3034 RMK A01 T00370014  RH  085%=      5-min Rain = 0
KBI1 110549Z 16005KT 04/01 A3034 RMK A01 T00360014  RH  085%=      5-min Rain = 0
KBI1 110550Z 16006KT 04/01 A3034 RMK A01 T00370014  RH  085%=      5-min Rain = 0
KBI1 110551Z 16007KT 04/01 A3034 RMK A01 T00360014  RH  085%=      5-min Rain = 0
KBI1 110552Z 16007KT 04/01 A3034 RMK A01 T00370014  RH  085%=      5-min Rain = 0
KBI1 110553Z 17007KT 04/01 A3034 RMK A01 T00360013  RH  085%=      5-min Rain = 0
KBI1 110554Z 17006KT 04/01 A3034 RMK A01 T00360014  RH  085%=      5-min Rain = 0
KBI1 110555Z 17006KT 04/01 A3034 RMK A01 T00370013  RH  085%=      5-min Rain = 0
KBI1 110556Z 17007KT 04/01 A3034 RMK A01 T00360013  RH  085%=      5-min Rain = 0
KBI1 110557Z 17007KT 04/01 A3034 RMK A01 T00360013  RH  085%=      5-min Rain = 0
KBI1 110558Z 18007KT 04/01 A3034 RMK A01 T00350012  RH  085%=      5-min Rain = 0
KBI1 110559Z 17007KT 03/01 A3034 RMK A01 T00340012  RH  085%=      5-min Rain = 0

Page generated in 0.1467 seconds.